Time,TemperatureF,DewpointF,PressureIn,WindDirection,WindDirectionDegrees,WindSpeedMPH,WindSpeedGustMPH,Humidity,HourlyPrecipIn,Conditions,Clouds,dailyrainin,SoftwareType,DateUTC
2013-01-18 00:00:00,41.2,8.9,30.03,SSW,204,5.4,6.3,26,0.00,,---,0.00,VWS V14.01,2013-01-18 07:00:00,
2013-01-18 00:01:00,41.2,6.2,30.03,SSW,202,5.4,6.3,23,0.00,,---,0.00,VWS V14.01,2013-01-18 07:01:00,
2013-01-18 00:03:00,41.0,6.1,30.03,SSW,199,9.6,9.6,23,0.00,,---,0.00,VWS V14.01,2013-01-18 07:03:00,
2013-01-18 00:04:00,41.0,6.1,30.03,SSW,209,5.4,9.6,23,0.00,,---,0.00,VWS V14.01,2013-01-18 07:04:00,
2013-01-18 00:06:00,41.0,8.8,30.03,SSW,211,5.8,9.6,26,0.00,,---,0.00,VWS V14.01,2013-01-18 07:06:00,
2013-01-18 00:08:00,40.8,5.9,30.03,South,188,5.4,9.6,23,0.00,,---,0.00,VWS V14.01,2013-01-18 07:08:00,
2013-01-18 00:09:00,40.8,5.9,30.03,SSW,196,3.6,9.6,23,0.00,,---,0.00,VWS V14.01,2013-01-18 07:09:00,
2013-01-18 00:11:00,40.6,8.4,30.03,WSW,249,3.6,9.6,26,0.00,,---,0.00,VWS V14.01,2013-01-18 07:11:00,
2013-01-18 00:13:00,40.6,5.8,30.03,SSW,194,8.1,9.6,23,0.00,,---,0.00,VWS V14.01,2013-01-18 07:13:00,
2013-01-18 00:14:00,40.5,8.3,30.03,SW,235,4.9,9.6,26,0.00,,---,0.00,VWS V14.01,2013-01-18 07:14:00,
2013-01-18 00:16:00,40.5,5.6,30.03,SW,222,3.1,6.3,23,0.00,,---,0.00,VWS V14.01,2013-01-18 07:16:00,
2013-01-18 00:18:00,40.5,8.3,30.03,SSW,197,5.8,6.3,26,0.00,,---,0.00,VWS V14.01,2013-01-18 07:18:00,
2013-01-18 00:19:00,40.5,5.6,30.03,SSW,204,6.3,6.3,23,0.00,,---,0.00,VWS V14.01,2013-01-18 07:19:00,
2013-01-18 00:21:00,40.5,5.6,30.03,SW,223,3.6,6.3,23,0.00,,---,0.00,VWS V14.01,2013-01-18 07:21:00,
2013-01-18 00:22:00,40.5,5.6,30.03,South,191,6.3,6.3,23,0.00,,---,0.00,VWS V14.01,2013-01-18 07:22:00,
2013-01-18 00:23:00,40.5,5.6,30.03,SSW,206,4.0,8.1,23,0.00,,---,0.00,VWS V14.01,2013-01-18 07:23:00,
2013-01-18 00:25:00,40.6,5.8,30.03,SSW,197,5.8,8.1,23,0.00,,---,0.00,VWS V14.01,2013-01-18 07:25:00,
2013-01-18 00:26:00,40.6,5.8,30.03,South,188,5.4,8.1,23,0.00,,---,0.00,VWS V14.01,2013-01-18 07:26:00,
2013-01-18 00:27:00,40.6,5.8,30.03,South,186,6.3,8.1,23,0.00,,---,0.00,VWS V14.01,2013-01-18 07:27:00,
2013-01-18 00:28:00,40.6,5.8,30.03,SSW,198,5.4,8.1,23,0.00,,---,0.00,VWS V14.01,2013-01-18 07:28:00,
2013-01-18 00:30:00,40.6,5.8,30.03,SSW,206,4.9,8.1,23,0.00,,---,0.00,VWS V14.01,2013-01-18 07:30:00,
2013-01-18 00:31:00,40.5,5.6,30.03,SW,214,4.0,5.8,23,0.00,,---,0.00,VWS V14.01,2013-01-18 07:31:00,
2013-01-18 00:32:00,40.5,5.6,30.03,SSW,211,8.1,8.1,23,0.00,,---,0.00,VWS V14.01,2013-01-18 07:32:00,
2013-01-18 00:33:00,40.3,5.4,30.03,South,190,6.3,8.1,23,0.00,,---,0.00,VWS V14.01,2013-01-18 07:33:00,
2013-01-18 00:35:00,40.3,5.4,30.03,SSW,213,5.8,8.1,23,0.00,,---,0.00,VWS V14.01,2013-01-18 07:35:00,
2013-01-18 00:36:00,40.3,5.4,30.03,SSW,209,7.6,8.1,23,0.00,,---,0.00,VWS V14.01,2013-01-18 07:36:00,
2013-01-18 00:37:00,40.1,5.3,30.03,SSW,208,5.4,8.1,23,0.00,,---,0.00,VWS V14.01,2013-01-18 07:37:00,
2013-01-18 00:39:00,40.5,5.6,30.03,SW,225,5.8,10.1,23,0.00,,---,0.00,VWS V14.01,2013-01-18 07:39:00,
2013-01-18 00:40:00,40.6,5.8,30.03,South,182,5.8,10.1,23,0.00,,---,0.00,VWS V14.01,2013-01-18 07:40:00,
2013-01-18 00:42:00,40.6,5.8,30.03,SW,217,7.2,10.1,23,0.00,,---,0.00,VWS V14.01,2013-01-18 07:42:00,
2013-01-18 00:44:00,41.0,6.1,30.00,SW,218,8.3,10.1,23,0.00,,---,0.00,VWS V14.01,2013-01-18 07:44:00,
2013-01-18 00:45:00,41.0,4.1,30.00,SW,214,5.8,8.3,21,0.00,,---,0.00,VWS V14.01,2013-01-18 07:45:00,
2013-01-18 00:47:00,41.0,4.1,30.00,SSW,200,6.7,8.3,21,0.00,,---,0.00,VWS V14.01,2013-01-18 07:47:00,
2013-01-18 00:49:00,41.2,6.2,30.00,SSW,209,8.3,8.3,23,0.00,,---,0.00,VWS V14.01,2013-01-18 07:49:00,
2013-01-18 00:50:00,41.2,4.2,30.00,SW,224,7.6,8.3,21,0.00,,---,0.00,VWS V14.01,2013-01-18 07:50:00,
2013-01-18 00:52:00,41.2,4.2,30.00,SSW,194,6.3,8.3,21,0.00,,---,0.00,VWS V14.01,2013-01-18 07:52:00,
2013-01-18 00:53:00,41.2,6.2,30.00,South,190,8.1,10.1,23,0.00,,---,0.00,VWS V14.01,2013-01-18 07:53:00,
2013-01-18 00:54:00,41.2,6.2,30.00,SSW,209,3.1,10.1,23,0.00,,---,0.00,VWS V14.01,2013-01-18 07:54:00,
2013-01-18 00:55:00,41.2,6.2,30.00,SSW,201,8.3,10.1,23,0.00,,---,0.00,VWS V14.01,2013-01-18 07:55:00,
2013-01-18 00:57:00,41.2,4.2,30.00,South,190,8.1,10.1,21,0.00,,---,0.00,VWS V14.01,2013-01-18 07:57:00,
2013-01-18 00:58:00,41.4,4.4,30.00,SSW,210,5.8,13.2,21,0.00,,---,0.00,VWS V14.01,2013-01-18 07:58:00,
2013-01-18 01:00:00,41.4,4.4,30.00,SSW,204,8.3,13.2,21,0.00,,---,0.00,VWS V14.01,2013-01-18 08:00:00,
2013-01-18 01:02:00,41.5,4.5,30.00,SSW,202,7.6,9.6,21,0.00,,---,0.00,VWS V14.01,2013-01-18 08:02:00,
2013-01-18 01:04:00,41.5,4.5,30.00,SSW,201,8.3,9.6,21,0.00,,---,0.00,VWS V14.01,2013-01-18 08:04:00,
2013-01-18 01:05:00,41.5,4.5,30.00,SSW,208,6.3,10.1,21,0.00,,---,0.00,VWS V14.01,2013-01-18 08:05:00,
2013-01-18 01:07:00,41.7,4.7,30.00,SSW,196,6.3,10.1,21,0.00,,---,0.00,VWS V14.01,2013-01-18 08:07:00,
2013-01-18 01:09:00,41.7,4.7,30.00,SW,223,8.3,11.0,21,0.00,,---,0.00,VWS V14.01,2013-01-18 08:09:00,
2013-01-18 01:10:00,41.7,4.7,30.00,South,186,5.8,11.4,21,0.00,,---,0.00,VWS V14.01,2013-01-18 08:10:00,
2013-01-18 01:11:00,41.9,4.8,30.00,SSW,213,8.3,11.4,21,0.00,,---,0.00,VWS V14.01,2013-01-18 08:11:00,
2013-01-18 01:12:00,42.1,5.0,30.00,SSW,202,6.3,11.4,21,0.00,,---,0.00,VWS V14.01,2013-01-18 08:12:00,
2013-01-18 01:14:00,42.1,5.0,30.00,South,190,8.1,11.4,21,0.00,,---,0.00,VWS V14.01,2013-01-18 08:14:00,
2013-01-18 01:15:00,42.1,5.0,30.00,SSW,199,7.6,8.1,21,0.00,,---,0.00,VWS V14.01,2013-01-18 08:15:00,
2013-01-18 01:16:00,42.1,5.0,30.00,SSW,202,8.7,8.7,21,0.00,,---,0.00,VWS V14.01,2013-01-18 08:16:00,
2013-01-18 01:18:00,42.1,5.0,30.00,SSW,204,6.3,8.7,21,0.00,,---,0.00,VWS V14.01,2013-01-18 08:18:00,
2013-01-18 01:19:00,41.9,4.8,30.00,SSW,196,6.3,8.7,21,0.00,,---,0.00,VWS V14.01,2013-01-18 08:19:00,
2013-01-18 01:20:00,41.9,4.8,30.00,South,191,6.3,8.7,21,0.00,,---,0.00,VWS V14.01,2013-01-18 08:20:00,
2013-01-18 01:21:00,41.9,4.8,30.00,SSW,202,8.7,8.7,21,0.00,,---,0.00,VWS V14.01,2013-01-18 08:21:00,
2013-01-18 01:23:00,41.9,4.8,30.00,SSW,204,3.6,8.7,21,0.00,,---,0.00,VWS V14.01,2013-01-18 08:23:00,
2013-01-18 01:24:00,41.9,4.8,30.00,SW,216,6.3,8.7,21,0.00,,---,0.00,VWS V14.01,2013-01-18 08:24:00,
2013-01-18 01:25:00,41.7,4.7,30.00,SSW,202,3.1,8.7,21,0.00,,---,0.00,VWS V14.01,2013-01-18 08:25:00,
2013-01-18 01:26:00,41.7,4.7,30.00,South,186,3.6,8.7,21,0.00,,---,0.00,VWS V14.01,2013-01-18 08:26:00,
2013-01-18 01:28:00,41.7,4.7,30.00,SSW,204,6.3,8.7,21,0.00,,---,0.00,VWS V14.01,2013-01-18 08:28:00,
2013-01-18 01:29:00,41.7,4.7,30.00,SW,216,6.3,8.7,21,0.00,,---,0.00,VWS V14.01,2013-01-18 08:29:00,
2013-01-18 01:30:00,41.7,4.7,30.00,SSW,205,2.7,4.9,21,0.00,,---,0.00,VWS V14.01,2013-01-18 08:30:00,
2013-01-18 01:31:00,41.7,4.7,30.00,SSW,196,4.0,4.9,21,0.00,,---,0.00,VWS V14.01,2013-01-18 08:31:00,
2013-01-18 01:33:00,41.7,4.7,30.00,SSW,196,4.0,4.9,21,0.00,,---,0.00,VWS V14.01,2013-01-18 08:33:00,
2013-01-18 01:34:00,41.7,4.7,30.00,SSW,202,4.0,4.9,21,0.00,,---,0.00,VWS V14.01,2013-01-18 08:34:00,
2013-01-18 01:35:00,41.5,4.5,30.00,SW,222,5.4,5.4,21,0.00,,---,0.00,VWS V14.01,2013-01-18 08:35:00,
2013-01-18 01:37:00,41.5,4.5,30.00,SSW,204,4.9,7.6,21,0.00,,---,0.00,VWS V14.01,2013-01-18 08:37:00,
2013-01-18 01:39:00,41.5,4.5,30.00,South,191,3.6,7.6,21,0.00,,---,0.00,VWS V14.01,2013-01-18 08:39:00,
2013-01-18 01:40:00,41.5,4.5,30.00,South,190,3.1,7.6,21,0.00,,---,0.00,VWS V14.01,2013-01-18 08:40:00,
2013-01-18 01:41:00,41.5,4.5,30.00,SSW,192,5.8,7.6,21,0.00,,---,0.00,VWS V14.01,2013-01-18 08:41:00,
2013-01-18 01:42:00,41.4,4.4,30.00,South,191,4.0,7.6,21,0.00,,---,0.00,VWS V14.01,2013-01-18 08:42:00,
2013-01-18 01:44:00,41.4,4.4,30.00,SSW,207,2.7,7.6,21,0.00,,---,0.00,VWS V14.01,2013-01-18 08:44:00,
2013-01-18 01:45:00,41.4,4.4,30.00,SSW,207,2.7,7.6,21,0.00,,---,0.00,VWS V14.01,2013-01-18 08:45:00,
2013-01-18 01:46:00,41.4,4.4,30.00,SSW,198,5.4,5.4,21,0.00,,---,0.00,VWS V14.01,2013-01-18 08:46:00,
2013-01-18 01:47:00,41.4,4.4,30.00,SSW,213,5.4,6.3,21,0.00,,---,0.00,VWS V14.01,2013-01-18 08:47:00,
2013-01-18 01:50:00,41.4,4.4,30.00,SSW,196,5.4,6.3,21,0.00,,---,0.00,VWS V14.01,2013-01-18 08:50:00,
2013-01-18 01:51:00,41.4,4.4,30.00,SSW,201,4.0,6.3,21,0.00,,---,0.00,VWS V14.01,2013-01-18 08:51:00,
2013-01-18 01:52:00,41.4,4.4,30.00,SSW,203,6.3,6.3,21,0.00,,---,0.00,VWS V14.01,2013-01-18 08:52:00,
2013-01-18 01:55:00,41.5,4.5,30.00,SSW,200,5.4,7.2,21,0.00,,---,0.00,VWS V14.01,2013-01-18 08:55:00,
2013-01-18 01:56:00,41.5,4.5,30.00,SSW,202,4.0,7.2,21,0.00,,---,0.00,VWS V14.01,2013-01-18 08:56:00,
2013-01-18 01:57:00,41.7,4.7,30.00,SW,218,3.1,7.2,21,0.00,,---,0.00,VWS V14.01,2013-01-18 08:57:00,
2013-01-18 02:00:00,41.7,4.7,30.00,West,266,4.0,4.0,21,0.00,,---,0.00,VWS V14.01,2013-01-18 09:00:00,
2013-01-18 02:01:00,41.7,4.7,30.00,West,266,0.0,4.0,21,0.00,,---,0.00,VWS V14.01,2013-01-18 09:01:00,
2013-01-18 02:03:00,41.5,1.2,30.00,SSW,212,5.4,8.7,18,0.00,,---,0.00,VWS V14.01,2013-01-18 09:03:00,
2013-01-18 02:05:00,41.7,1.4,30.00,SSW,193,5.8,8.7,18,0.00,,---,0.00,VWS V14.01,2013-01-18 09:05:00,
2013-01-18 02:06:00,41.7,1.4,30.00,SSW,206,5.8,8.7,18,0.00,,---,0.00,VWS V14.01,2013-01-18 09:06:00,
2013-01-18 02:08:00,41.9,1.5,30.00,SSW,203,7.6,10.1,18,0.00,,---,0.00,VWS V14.01,2013-01-18 09:08:00,
2013-01-18 02:10:00,41.9,4.8,30.00,SSW,208,4.9,10.1,21,0.00,,---,0.00,VWS V14.01,2013-01-18 09:10:00,
2013-01-18 02:11:00,41.9,1.5,30.00,SSW,211,3.6,10.1,18,0.00,,---,0.00,VWS V14.01,2013-01-18 09:11:00,
2013-01-18 02:13:00,41.5,4.5,30.00,SSW,200,3.1,10.1,21,0.00,,---,0.00,VWS V14.01,2013-01-18 09:13:00,
2013-01-18 02:15:00,41.2,4.2,30.00,WNW,299,3.6,4.0,21,0.00,,---,0.00,VWS V14.01,2013-01-18 09:15:00,
2013-01-18 02:16:00,41.2,4.2,30.00,WSW,247,2.7,4.0,21,0.00,,---,0.00,VWS V14.01,2013-01-18 09:16:00,
2013-01-18 02:18:00,40.5,3.6,30.00,West,267,3.1,4.0,21,0.00,,---,0.00,VWS V14.01,2013-01-18 09:18:00,
2013-01-18 02:20:00,40.1,3.3,30.00,NW,311,3.1,4.0,21,0.00,,---,0.00,VWS V14.01,2013-01-18 09:20:00,
2013-01-18 02:21:00,40.1,3.3,30.00,NW,314,0.0,4.0,21,0.00,,---,0.00,VWS V14.01,2013-01-18 09:21:00,
2013-01-18 02:24:00,39.4,2.7,30.00,West,277,4.0,6.3,21,0.00,,---,0.00,VWS V14.01,2013-01-18 09:24:00,
2013-01-18 02:25:00,39.4,2.7,30.00,WNW,300,2.7,6.3,21,0.00,,---,0.00,VWS V14.01,2013-01-18 09:25:00,
2013-01-18 02:26:00,39.4,2.7,30.00,South,186,2.7,6.3,21,0.00,,---,0.00,VWS V14.01,2013-01-18 09:26:00,
2013-01-18 02:27:00,39.2,2.6,30.00,ESE,114,4.0,6.3,21,0.00,,---,0.00,VWS V14.01,2013-01-18 09:27:00,
2013-01-18 02:29:00,39.2,2.6,30.00,East,84,5.4,6.3,21,0.00,,---,0.00,VWS V14.01,2013-01-18 09:29:00,
2013-01-18 02:30:00,39.0,2.4,30.00,NNW,328,3.1,4.0,21,0.00,,---,0.00,VWS V14.01,2013-01-18 09:30:00,
2013-01-18 02:31:00,39.2,2.6,30.00,NNW,332,2.7,4.0,21,0.00,,---,0.00,VWS V14.01,2013-01-18 09:31:00,
2013-01-18 02:34:00,38.8,2.3,30.00,North,350,0.0,4.0,21,0.00,,---,0.00,VWS V14.01,2013-01-18 09:34:00,
2013-01-18 02:36:00,38.7,2.1,30.00,North,0,2.7,4.0,21,0.00,,---,0.00,VWS V14.01,2013-01-18 09:36:00,
2013-01-18 02:37:00,38.7,2.1,30.00,NNW,328,0.0,4.0,21,0.00,,---,0.00,VWS V14.01,2013-01-18 09:37:00,
2013-01-18 02:39:00,38.3,4.7,30.00,NNW,335,0.0,4.0,24,0.00,,---,0.00,VWS V14.01,2013-01-18 09:39:00,
2013-01-18 02:41:00,37.6,4.1,30.00,North,357,4.0,5.4,24,0.00,,---,0.00,VWS V14.01,2013-01-18 09:41:00,
2013-01-18 02:42:00,37.4,3.9,30.00,North,357,0.0,5.4,24,0.00,,---,0.00,VWS V14.01,2013-01-18 09:42:00,
2013-01-18 02:44:00,36.7,3.3,29.97,North,357,0.0,5.4,24,0.00,,---,0.00,VWS V14.01,2013-01-18 09:44:00,
2013-01-18 02:46:00,36.3,3.0,29.97,NNE,27,3.1,3.1,24,0.00,,---,0.00,VWS V14.01,2013-01-18 09:46:00,
2013-01-18 02:47:00,36.1,2.8,29.97,NNE,27,0.0,3.1,24,0.00,,---,0.00,VWS V14.01,2013-01-18 09:47:00,
2013-01-18 02:49:00,36.0,2.7,29.97,NNE,27,0.0,3.1,24,0.00,,---,0.00,VWS V14.01,2013-01-18 09:49:00,
2013-01-18 02:51:00,35.6,4.9,29.97,ENE,65,3.1,3.1,27,0.00,,---,0.00,VWS V14.01,2013-01-18 09:51:00,
2013-01-18 02:52:00,35.6,4.9,29.97,ENE,65,0.0,3.1,27,0.00,,---,0.00,VWS V14.01,2013-01-18 09:52:00,
2013-01-18 02:54:00,35.1,4.5,29.97,ENE,65,0.0,3.1,27,0.00,,---,0.00,VWS V14.01,2013-01-18 09:54:00,
2013-01-18 02:56:00,34.9,6.6,29.97,NNW,340,2.7,3.1,30,0.00,,---,0.00,VWS V14.01,2013-01-18 09:56:00,
2013-01-18 02:57:00,34.9,6.6,29.97,NNW,340,2.2,3.1,30,0.00,,---,0.00,VWS V14.01,2013-01-18 09:57:00,
2013-01-18 03:00:00,34.5,6.3,30.00,North,357,0.0,3.1,30,0.00,,---,0.00,VWS V14.01,2013-01-18 10:00:00,
2013-01-18 03:02:00,34.5,6.3,30.00,North,357,0.0,0.0,30,0.00,,---,0.00,VWS V14.01,2013-01-18 10:02:00,
2013-01-18 03:05:00,34.3,6.1,30.00,North,4,5.4,5.4,30,0.00,,---,0.00,VWS V14.01,2013-01-18 10:05:00,
2013-01-18 03:07:00,34.3,6.1,30.00,North,6,0.0,5.4,30,0.00,,---,0.00,VWS V14.01,2013-01-18 10:07:00,
2013-01-18 03:10:00,34.2,6.0,30.00,North,7,0.0,5.4,30,0.00,,---,0.00,VWS V14.01,2013-01-18 10:10:00,
2013-01-18 03:12:00,34.0,5.8,30.00,North,7,0.0,5.4,30,0.00,,---,0.00,VWS V14.01,2013-01-18 10:12:00,
2013-01-18 03:15:00,33.8,3.4,29.97,North,357,4.9,4.9,27,0.00,,---,0.00,VWS V14.01,2013-01-18 10:15:00,
2013-01-18 03:17:00,33.8,5.7,29.97,North,357,0.0,4.9,30,0.00,,---,0.00,VWS V14.01,2013-01-18 10:17:00,
2013-01-18 03:20:00,33.6,5.5,29.97,North,357,0.0,4.9,30,0.00,,---,0.00,VWS V14.01,2013-01-18 10:20:00,
2013-01-18 03:22:00,33.6,5.5,29.97,North,357,0.0,4.9,30,0.00,,---,0.00,VWS V14.01,2013-01-18 10:22:00,
2013-01-18 03:23:00,33.6,5.5,29.97,North,357,0.0,4.9,30,0.00,,---,0.00,VWS V14.01,2013-01-18 10:23:00,
2013-01-18 03:25:00,33.4,5.3,29.97,North,357,0.0,4.9,30,0.00,,---,0.00,VWS V14.01,2013-01-18 10:25:00,
2013-01-18 03:27:00,33.4,5.3,29.97,NNE,19,0.0,4.9,30,0.00,,---,0.00,VWS V14.01,2013-01-18 10:27:00,
2013-01-18 03:28:00,33.4,5.3,29.97,NNE,19,0.0,4.9,30,0.00,,---,0.00,VWS V14.01,2013-01-18 10:28:00,
2013-01-18 03:30:00,33.4,5.3,29.97,North,357,0.0,0.0,30,0.00,,---,0.00,VWS V14.01,2013-01-18 10:30:00,
2013-01-18 03:32:00,33.3,5.2,29.97,North,357,0.0,0.0,30,0.00,,---,0.00,VWS V14.01,2013-01-18 10:32:00,
2013-01-18 03:33:00,33.3,5.2,29.97,North,357,0.0,0.0,30,0.00,,---,0.00,VWS V14.01,2013-01-18 10:33:00,
2013-01-18 03:35:00,33.1,5.0,29.97,West,268,0.0,4.0,30,0.00,,---,0.00,VWS V14.01,2013-01-18 10:35:00,
2013-01-18 03:37:00,32.9,4.9,29.97,West,268,0.0,4.0,30,0.00,,---,0.00,VWS V14.01,2013-01-18 10:37:00,
2013-01-18 03:38:00,32.9,4.9,29.97,West,267,0.0,4.0,30,0.00,,---,0.00,VWS V14.01,2013-01-18 10:38:00,
2013-01-18 03:40:00,33.1,5.0,29.97,West,265,0.0,4.0,30,0.00,,---,0.00,VWS V14.01,2013-01-18 10:40:00,
2013-01-18 03:43:00,33.1,5.0,29.97,NW,313,0.0,4.0,30,0.00,,---,0.00,VWS V14.01,2013-01-18 10:43:00,
2013-01-18 03:46:00,33.1,5.0,29.97,NW,308,0.0,2.7,30,0.00,,---,0.00,VWS V14.01,2013-01-18 10:46:00,
2013-01-18 03:48:00,33.1,5.0,29.97,WNW,290,2.7,3.1,30,0.00,,---,0.00,VWS V14.01,2013-01-18 10:48:00,
2013-01-18 03:51:00,33.1,5.0,29.97,WNW,285,2.2,3.1,30,0.00,,---,0.00,VWS V14.01,2013-01-18 10:51:00,
2013-01-18 03:53:00,33.1,5.0,29.97,SSW,204,3.1,3.1,30,0.00,,---,0.00,VWS V14.01,2013-01-18 10:53:00,
2013-01-18 03:56:00,33.6,5.5,29.97,SSW,202,4.0,4.0,30,0.00,,---,0.00,VWS V14.01,2013-01-18 10:56:00,
2013-01-18 03:58:00,33.8,5.7,29.97,SSW,212,0.0,4.0,30,0.00,,---,0.00,VWS V14.01,2013-01-18 10:58:00,
2013-01-18 04:01:00,33.8,5.7,29.97,NW,305,0.0,3.6,30,0.00,,---,0.00,VWS V14.01,2013-01-18 11:01:00,
2013-01-18 04:03:00,34.0,5.8,29.97,North,357,2.2,3.6,30,0.00,,---,0.00,VWS V14.01,2013-01-18 11:03:00,
2013-01-18 04:04:00,34.0,5.8,29.97,North,357,2.7,3.6,30,0.00,,---,0.00,VWS V14.01,2013-01-18 11:04:00,
2013-01-18 04:06:00,34.0,5.8,29.97,NNE,33,0.0,3.6,30,0.00,,---,0.00,VWS V14.01,2013-01-18 11:06:00,
2013-01-18 04:08:00,34.0,5.8,29.97,NNE,32,2.7,3.6,30,0.00,,---,0.00,VWS V14.01,2013-01-18 11:08:00,
2013-01-18 04:09:00,34.0,5.8,29.97,NNE,32,2.7,3.6,30,0.00,,---,0.00,VWS V14.01,2013-01-18 11:09:00,
2013-01-18 04:11:00,34.2,6.0,29.97,NNE,14,0.0,3.6,30,0.00,,---,0.00,VWS V14.01,2013-01-18 11:11:00,
2013-01-18 04:13:00,34.2,6.0,29.97,NNE,14,0.0,3.6,30,0.00,,---,0.00,VWS V14.01,2013-01-18 11:13:00,
2013-01-18 04:14:00,34.2,6.0,29.97,NNE,14,0.0,3.6,30,0.00,,---,0.00,VWS V14.01,2013-01-18 11:14:00,
2013-01-18 04:16:00,34.0,5.8,29.97,NNE,14,0.0,0.0,30,0.00,,---,0.00,VWS V14.01,2013-01-18 11:16:00,
2013-01-18 04:18:00,34.0,5.8,29.97,North,5,2.2,3.6,30,0.00,,---,0.00,VWS V14.01,2013-01-18 11:18:00,
2013-01-18 04:19:00,34.0,5.8,29.97,North,5,2.2,3.6,30,0.00,,---,0.00,VWS V14.01,2013-01-18 11:19:00,
2013-01-18 04:21:00,34.2,6.0,29.97,North,5,0.0,3.6,30,0.00,,---,0.00,VWS V14.01,2013-01-18 11:21:00,
2013-01-18 04:24:00,34.3,6.1,29.97,North,5,0.0,3.6,30,0.00,,---,0.00,VWS V14.01,2013-01-18 11:24:00,
2013-01-18 04:27:00,34.2,6.0,29.97,North,5,2.7,3.6,30,0.00,,---,0.00,VWS V14.01,2013-01-18 11:27:00,
2013-01-18 04:28:00,34.2,6.0,29.97,North,349,2.7,3.6,30,0.00,,---,0.00,VWS V14.01,2013-01-18 11:28:00,
2013-01-18 04:29:00,34.2,6.0,29.97,NNW,344,2.7,3.6,30,0.00,,---,0.00,VWS V14.01,2013-01-18 11:29:00,
2013-01-18 04:32:00,34.0,5.8,29.97,North,2,0.0,2.2,30,0.00,,---,0.00,VWS V14.01,2013-01-18 11:32:00,
2013-01-18 04:34:00,34.2,6.0,29.97,NW,325,0.0,3.1,30,0.00,,---,0.00,VWS V14.01,2013-01-18 11:34:00,
2013-01-18 04:37:00,34.2,6.0,29.97,NW,325,0.0,3.1,30,0.00,,---,0.00,VWS V14.01,2013-01-18 11:37:00,
2013-01-18 04:39:00,34.3,3.8,29.97,NW,325,0.0,3.1,27,0.00,,---,0.00,VWS V14.01,2013-01-18 11:39:00,
2013-01-18 04:42:00,34.3,3.8,29.97,NW,325,0.0,3.1,27,0.00,,---,0.00,VWS V14.01,2013-01-18 11:42:00,
2013-01-18 04:44:00,34.3,3.8,29.97,NW,325,0.0,3.1,27,0.00,,---,0.00,VWS V14.01,2013-01-18 11:44:00,
2013-01-18 04:47:00,34.3,3.8,29.97,West,263,4.0,4.0,27,0.00,,---,0.00,VWS V14.01,2013-01-18 11:47:00,
2013-01-18 04:49:00,34.3,6.1,29.97,WSW,241,0.0,4.0,30,0.00,,---,0.00,VWS V14.01,2013-01-18 11:49:00,
2013-01-18 04:50:00,34.2,6.0,29.97,WSW,241,0.0,4.0,30,0.00,,---,0.00,VWS V14.01,2013-01-18 11:50:00,
2013-01-18 04:52:00,34.2,6.0,29.97,NW,312,0.0,4.0,30,0.00,,---,0.00,VWS V14.01,2013-01-18 11:52:00,
2013-01-18 04:54:00,34.2,6.0,29.97,SSW,197,3.1,4.0,30,0.00,,---,0.00,VWS V14.01,2013-01-18 11:54:00,
2013-01-18 04:55:00,34.2,6.0,29.97,SSW,197,2.7,4.0,30,0.00,,---,0.00,VWS V14.01,2013-01-18 11:55:00,
2013-01-18 04:57:00,34.3,6.1,29.97,SSW,196,2.2,4.0,30,0.00,,---,0.00,VWS V14.01,2013-01-18 11:57:00,
2013-01-18 04:59:00,34.3,6.1,29.97,SW,226,0.0,4.0,30,0.00,,---,0.00,VWS V14.01,2013-01-18 11:59:00,
2013-01-18 05:00:00,34.3,6.1,29.97,SW,223,0.0,0.0,30,0.00,,---,0.00,VWS V14.01,2013-01-18 12:00:00,
2013-01-18 05:02:00,34.5,4.0,29.97,South,171,3.6,4.0,27,0.00,,---,0.00,VWS V14.01,2013-01-18 12:02:00,
2013-01-18 05:04:00,35.1,4.5,29.97,South,170,2.7,5.4,27,0.00,,---,0.00,VWS V14.01,2013-01-18 12:04:00,
2013-01-18 05:05:00,35.2,4.6,29.97,SE,132,3.1,5.4,27,0.00,,---,0.00,VWS V14.01,2013-01-18 12:05:00,
2013-01-18 05:08:00,35.6,6.5,29.97,South,177,2.7,5.4,29,0.00,,---,0.00,VWS V14.01,2013-01-18 12:08:00,
2013-01-18 05:10:00,35.8,5.1,29.97,South,183,5.4,5.4,27,0.00,,---,0.00,VWS V14.01,2013-01-18 12:10:00,
2013-01-18 05:13:00,37.0,6.2,29.97,SSW,201,5.8,6.7,27,0.00,,---,0.00,VWS V14.01,2013-01-18 12:13:00,
2013-01-18 05:15:00,37.4,3.9,29.97,SSW,207,4.9,6.7,24,0.00,,---,0.00,VWS V14.01,2013-01-18 12:15:00,
2013-01-18 05:18:00,38.3,1.8,29.97,SSW,203,3.6,5.8,21,0.00,,---,0.00,VWS V14.01,2013-01-18 12:18:00,
2013-01-18 05:20:00,38.8,2.3,29.97,SW,218,3.1,5.8,21,0.00,,---,0.00,VWS V14.01,2013-01-18 12:20:00,
2013-01-18 05:23:00,39.7,3.0,29.97,SSW,198,4.0,8.7,21,0.00,,---,0.00,VWS V14.01,2013-01-18 12:23:00,
2013-01-18 05:25:00,40.3,3.5,29.97,SSW,204,3.1,8.7,21,0.00,,---,0.00,VWS V14.01,2013-01-18 12:25:00,
2013-01-18 05:26:00,40.3,3.5,29.97,WSW,240,0.0,8.7,21,0.00,,---,0.00,VWS V14.01,2013-01-18 12:26:00,
2013-01-18 05:28:00,40.3,3.5,29.97,West,259,0.0,8.7,21,0.00,,---,0.00,VWS V14.01,2013-01-18 12:28:00,
2013-01-18 05:31:00,40.1,3.3,29.97,SSW,205,2.7,3.6,21,0.00,,---,0.00,VWS V14.01,2013-01-18 12:31:00,
2013-01-18 05:33:00,39.9,-0.1,29.97,SSW,202,3.6,6.3,18,0.00,,---,0.00,VWS V14.01,2013-01-18 12:33:00,
2013-01-18 05:36:00,40.5,0.3,29.97,SSW,208,5.4,6.7,18,0.00,,---,0.00,VWS V14.01,2013-01-18 12:36:00,
2013-01-18 05:38:00,41.0,0.8,29.97,SSW,203,5.4,6.7,18,0.00,,---,0.00,VWS V14.01,2013-01-18 12:38:00,
2013-01-18 05:41:00,41.2,0.9,29.97,SSW,203,3.6,6.7,18,0.00,,---,0.00,VWS V14.01,2013-01-18 12:41:00,
2013-01-18 05:43:00,41.7,1.4,29.97,West,274,2.7,6.7,18,0.00,,---,0.00,VWS V14.01,2013-01-18 12:43:00,
2013-01-18 05:46:00,41.7,1.4,29.97,SW,236,2.7,2.7,18,0.00,,---,0.00,VWS V14.01,2013-01-18 12:46:00,
2013-01-18 05:48:00,41.7,1.4,29.97,SSW,198,4.0,5.4,18,0.00,,---,0.00,VWS V14.01,2013-01-18 12:48:00,
2013-01-18 05:51:00,41.5,1.2,29.97,SW,231,3.1,6.7,18,0.00,,---,0.00,VWS V14.01,2013-01-18 12:51:00,
2013-01-18 05:53:00,41.4,1.0,29.97,WSW,238,2.2,6.7,18,0.00,,---,0.00,VWS V14.01,2013-01-18 12:53:00,
2013-01-18 05:56:00,41.2,0.9,29.97,SSW,211,3.1,6.7,18,0.00,,---,0.00,VWS V14.01,2013-01-18 12:56:00,
2013-01-18 05:57:00,41.2,0.9,29.97,SSW,200,3.1,6.7,18,0.00,,---,0.00,VWS V14.01,2013-01-18 12:57:00,
2013-01-18 05:58:00,41.4,1.0,29.97,SSW,210,2.7,6.7,18,0.00,,---,0.00,VWS V14.01,2013-01-18 12:58:00,
2013-01-18 06:01:00,41.7,-1.2,29.97,SSW,203,4.9,5.8,16,0.00,,---,0.00,VWS V14.01,2013-01-18 13:01:00,
2013-01-18 06:02:00,41.7,1.4,29.97,SSW,211,3.6,5.8,18,0.00,,---,0.00,VWS V14.01,2013-01-18 13:02:00,
2013-01-18 06:03:00,42.1,1.6,29.97,NW,322,5.4,5.8,18,0.00,,---,0.00,VWS V14.01,2013-01-18 13:03:00,
2013-01-18 06:06:00,41.7,1.4,29.97,West,276,4.0,5.8,18,0.00,,---,0.00,VWS V14.01,2013-01-18 13:06:00,
2013-01-18 06:07:00,41.5,1.2,29.97,West,263,2.7,5.8,18,0.00,,---,0.00,VWS V14.01,2013-01-18 13:07:00,
2013-01-18 06:09:00,41.2,0.9,29.97,SW,220,4.0,5.8,18,0.00,,---,0.00,VWS V14.01,2013-01-18 13:09:00,
2013-01-18 06:11:00,41.2,0.9,29.97,SSW,208,2.2,5.8,18,0.00,,---,0.00,VWS V14.01,2013-01-18 13:11:00,
2013-01-18 06:12:00,41.2,0.9,29.97,SSW,212,2.7,5.8,18,0.00,,---,0.00,VWS V14.01,2013-01-18 13:12:00,
2013-01-18 06:14:00,41.2,0.9,29.97,SW,220,3.1,5.8,18,0.00,,---,0.00,VWS V14.01,2013-01-18 13:14:00,
2013-01-18 06:16:00,41.2,-1.6,29.97,SSW,197,3.6,3.6,16,0.00,,---,0.00,VWS V14.01,2013-01-18 13:16:00,
2013-01-18 06:17:00,41.2,-1.6,29.97,SW,227,6.3,6.3,16,0.00,,---,0.00,VWS V14.01,2013-01-18 13:17:00,
2013-01-18 06:19:00,41.5,-1.3,29.97,SSW,204,5.4,6.3,16,0.00,,---,0.00,VWS V14.01,2013-01-18 13:19:00,
2013-01-18 06:22:00,42.1,-0.9,29.97,SSW,204,5.4,6.3,16,0.00,,---,0.00,VWS V14.01,2013-01-18 13:22:00,
2013-01-18 06:25:00,42.1,-0.9,29.97,SW,218,2.7,6.3,16,0.00,,---,0.00,VWS V14.01,2013-01-18 13:25:00,
2013-01-18 06:27:00,42.1,-0.9,29.97,SW,221,5.8,6.3,16,0.00,,---,0.00,VWS V14.01,2013-01-18 13:27:00,
2013-01-18 06:30:00,42.3,-0.7,29.97,SSW,208,2.7,2.7,16,0.00,,---,0.00,VWS V14.01,2013-01-18 13:30:00,
2013-01-18 06:32:00,42.3,-0.7,29.97,SSW,204,3.1,3.6,16,0.00,,---,0.00,VWS V14.01,2013-01-18 13:32:00,
2013-01-18 06:35:00,41.9,1.5,29.97,ENE,77,2.7,4.0,18,0.00,,---,0.00,VWS V14.01,2013-01-18 13:35:00,
2013-01-18 06:37:00,41.0,0.8,29.97,NNE,31,2.2,4.0,18,0.00,,---,0.00,VWS V14.01,2013-01-18 13:37:00,
2013-01-18 06:38:00,40.6,0.5,29.97,NNE,31,0.0,4.0,18,0.00,,---,0.00,VWS V14.01,2013-01-18 13:38:00,
2013-01-18 06:40:00,39.2,-0.7,29.97,NNE,31,0.0,4.0,18,0.00,,---,0.00,VWS V14.01,2013-01-18 13:40:00,
2013-01-18 06:42:00,38.5,-0.2,29.97,NNE,31,0.0,4.0,19,0.00,,---,0.00,VWS V14.01,2013-01-18 13:42:00,
2013-01-18 06:43:00,38.1,-0.5,29.97,NNE,31,0.0,4.0,19,0.00,,---,0.00,VWS V14.01,2013-01-18 13:43:00,
2013-01-18 06:45:00,37.2,-1.2,29.97,North,11,2.7,2.7,19,0.00,,---,0.00,VWS V14.01,2013-01-18 13:45:00,
2013-01-18 06:47:00,36.7,-1.7,29.97,SSW,198,2.7,4.0,19,0.00,,---,0.00,VWS V14.01,2013-01-18 13:47:00,
2013-01-18 06:48:00,36.7,-1.7,29.97,SSW,203,3.1,4.0,19,0.00,,---,0.00,VWS V14.01,2013-01-18 13:48:00,
2013-01-18 06:50:00,36.7,1.4,29.97,SW,231,3.6,4.0,22,0.00,,---,0.00,VWS V14.01,2013-01-18 13:50:00,
2013-01-18 06:52:00,36.7,-1.7,29.97,SSW,205,5.4,6.3,19,0.00,,---,0.00,VWS V14.01,2013-01-18 13:52:00,
2013-01-18 06:53:00,36.7,-1.7,29.97,SSW,205,5.4,6.3,19,0.00,,---,0.00,VWS V14.01,2013-01-18 13:53:00,
2013-01-18 06:56:00,37.9,-0.6,29.97,SSW,210,4.0,6.3,19,0.00,,---,0.00,VWS V14.01,2013-01-18 13:56:00,
2013-01-18 06:58:00,38.8,0.1,29.97,SSW,208,3.1,6.3,19,0.00,,---,0.00,VWS V14.01,2013-01-18 13:58:00,
2013-01-18 07:01:00,39.7,-0.3,29.97,West,264,2.2,4.9,18,0.00,,---,0.00,VWS V14.01,2013-01-18 14:01:00,
2013-01-18 07:03:00,39.7,-0.3,29.97,WSW,245,2.2,4.9,18,0.00,,---,0.00,VWS V14.01,2013-01-18 14:03:00,
2013-01-18 07:04:00,39.7,-0.3,29.97,SW,231,3.1,4.9,18,0.00,,---,0.00,VWS V14.01,2013-01-18 14:04:00,
2013-01-18 07:06:00,39.7,-0.3,29.97,NW,313,3.1,4.9,18,0.00,,---,0.00,VWS V14.01,2013-01-18 14:06:00,
2013-01-18 07:08:00,39.4,-0.6,29.97,West,261,4.0,4.9,18,0.00,,---,0.00,VWS V14.01,2013-01-18 14:08:00,
2013-01-18 07:09:00,39.4,-0.6,29.97,WSW,248,3.1,4.9,18,0.00,,---,0.00,VWS V14.01,2013-01-18 14:09:00,
2013-01-18 07:11:00,39.2,-0.7,29.97,SSW,212,3.6,5.8,18,0.00,,---,0.00,VWS V14.01,2013-01-18 14:11:00,
2013-01-18 07:13:00,39.2,-0.7,29.97,SW,235,3.6,5.8,18,0.00,,---,0.00,VWS V14.01,2013-01-18 14:13:00,
2013-01-18 07:14:00,39.2,-0.7,29.97,SW,235,2.7,5.8,18,0.00,,---,0.00,VWS V14.01,2013-01-18 14:14:00,
2013-01-18 07:16:00,39.2,-0.7,29.97,SW,223,2.7,4.0,18,0.00,,---,0.00,VWS V14.01,2013-01-18 14:16:00,
2013-01-18 07:18:00,39.2,-3.2,29.97,WSW,245,3.1,4.0,16,0.00,,---,0.00,VWS V14.01,2013-01-18 14:18:00,
2013-01-18 07:19:00,39.0,0.3,29.97,West,268,4.9,4.9,19,0.00,,---,0.00,VWS V14.01,2013-01-18 14:19:00,
2013-01-18 07:21:00,38.8,0.1,29.97,WNW,285,3.1,4.9,19,0.00,,---,0.00,VWS V14.01,2013-01-18 14:21:00,
2013-01-18 07:24:00,38.8,0.1,29.97,WSW,240,2.7,4.9,19,0.00,,---,0.00,VWS V14.01,2013-01-18 14:24:00,
2013-01-18 07:27:00,38.5,-0.2,29.97,WSW,239,2.7,4.9,19,0.00,,---,0.00,VWS V14.01,2013-01-18 14:27:00,
2013-01-18 07:29:00,38.3,-0.3,29.94,West,261,2.7,4.9,19,0.00,,---,0.00,VWS V14.01,2013-01-18 14:29:00,
2013-01-18 07:32:00,38.1,-0.5,29.94,WSW,239,2.7,3.1,19,0.00,,---,0.00,VWS V14.01,2013-01-18 14:32:00,
2013-01-18 07:34:00,37.9,-0.6,29.94,SSW,203,5.4,5.8,19,0.00,,---,0.00,VWS V14.01,2013-01-18 14:34:00,
2013-01-18 07:35:00,38.1,-0.5,29.94,SSW,205,5.4,6.3,19,0.00,,---,0.00,VWS V14.01,2013-01-18 14:35:00,
2013-01-18 07:37:00,38.5,-3.8,29.94,SSW,208,6.3,6.3,16,0.00,,---,0.00,VWS V14.01,2013-01-18 14:37:00,
2013-01-18 07:39:00,38.7,-3.7,29.94,SSW,213,4.5,7.6,16,0.00,,---,0.00,VWS V14.01,2013-01-18 14:39:00,
2013-01-18 07:40:00,38.8,-3.5,29.94,SSW,210,5.4,7.6,16,0.00,,---,0.00,VWS V14.01,2013-01-18 14:40:00,
2013-01-18 07:42:00,39.0,-3.4,29.94,SW,218,4.0,7.6,16,0.00,,---,0.00,VWS V14.01,2013-01-18 14:42:00,
2013-01-18 07:45:00,39.4,-3.1,29.94,SW,224,4.9,8.1,16,0.00,,---,0.00,VWS V14.01,2013-01-18 14:45:00,
2013-01-18 07:48:00,39.6,-2.9,29.94,SSW,201,4.9,6.3,16,0.00,,---,0.00,VWS V14.01,2013-01-18 14:48:00,
2013-01-18 07:50:00,39.6,-2.9,29.94,SSW,210,5.4,6.3,16,0.00,,---,0.00,VWS V14.01,2013-01-18 14:50:00,
2013-01-18 07:53:00,39.7,-2.8,29.94,SW,230,5.4,6.3,16,0.00,,---,0.00,VWS V14.01,2013-01-18 14:53:00,
2013-01-18 07:55:00,39.9,-2.6,29.94,SSW,212,4.9,6.3,16,0.00,,---,0.00,VWS V14.01,2013-01-18 14:55:00,
2013-01-18 07:58:00,39.9,-2.6,29.94,SW,225,4.9,6.3,16,0.00,,---,0.00,VWS V14.01,2013-01-18 14:58:00,
2013-01-18 08:00:00,39.9,-2.6,29.94,SSW,207,4.9,4.9,16,0.00,,---,0.00,VWS V14.01,2013-01-18 15:00:00,
2013-01-18 08:01:00,39.7,-2.8,29.94,SW,222,4.0,4.9,16,0.00,,---,0.00,VWS V14.01,2013-01-18 15:01:00,
2013-01-18 08:03:00,39.7,-2.8,29.94,SSW,211,7.6,7.6,16,0.00,,---,0.00,VWS V14.01,2013-01-18 15:03:00,
2013-01-18 08:05:00,39.7,-2.8,29.94,SW,231,4.0,7.6,16,0.00,,---,0.00,VWS V14.01,2013-01-18 15:05:00,
2013-01-18 08:06:00,39.7,-2.8,29.94,SSW,205,4.9,7.6,16,0.00,,---,0.00,VWS V14.01,2013-01-18 15:06:00,
2013-01-18 08:08:00,39.7,-2.8,29.94,SW,224,4.0,7.6,16,0.00,,---,0.00,VWS V14.01,2013-01-18 15:08:00,
2013-01-18 08:10:00,39.6,-2.9,29.94,SSW,206,5.4,7.6,16,0.00,,---,0.00,VWS V14.01,2013-01-18 15:10:00,
2013-01-18 08:11:00,39.6,-2.9,29.94,SSW,195,6.3,7.6,16,0.00,,---,0.00,VWS V14.01,2013-01-18 15:11:00,
2013-01-18 08:13:00,39.4,-0.6,29.94,SSW,200,5.8,7.6,18,0.00,,---,0.00,VWS V14.01,2013-01-18 15:13:00,
2013-01-18 08:15:00,39.4,-3.1,29.94,SSW,201,8.1,8.1,16,0.00,,---,0.00,VWS V14.01,2013-01-18 15:15:00,
2013-01-18 08:16:00,39.4,-3.1,29.94,SSW,201,8.1,8.1,16,0.00,,---,0.00,VWS V14.01,2013-01-18 15:16:00,
2013-01-18 08:18:00,39.4,-3.1,29.94,SSW,206,5.4,8.1,16,0.00,,---,0.00,VWS V14.01,2013-01-18 15:18:00,
2013-01-18 08:21:00,39.2,-3.2,29.94,SSW,207,6.3,8.1,16,0.00,,---,0.00,VWS V14.01,2013-01-18 15:21:00,
2013-01-18 08:24:00,38.8,-3.5,29.94,SW,220,5.8,8.1,16,0.00,,---,0.00,VWS V14.01,2013-01-18 15:24:00,
2013-01-18 08:26:00,38.8,-3.5,29.94,SSW,207,5.4,8.1,16,0.00,,---,0.00,VWS V14.01,2013-01-18 15:26:00,
2013-01-18 08:29:00,39.2,-3.2,29.94,SSW,205,4.0,8.1,16,0.00,,---,0.00,VWS V14.01,2013-01-18 15:29:00,
2013-01-18 08:31:00,39.0,-3.4,29.94,SSW,206,5.8,5.8,16,0.00,,---,0.00,VWS V14.01,2013-01-18 15:31:00,
2013-01-18 08:34:00,38.8,-3.5,29.94,SSW,209,5.8,6.3,16,0.00,,---,0.00,VWS V14.01,2013-01-18 15:34:00,
2013-01-18 08:36:00,38.8,-3.5,29.94,SSW,206,5.4,6.3,16,0.00,,---,0.00,VWS V14.01,2013-01-18 15:36:00,
2013-01-18 08:39:00,38.7,-3.7,29.94,SSW,208,6.3,6.3,16,0.00,,---,0.00,VWS V14.01,2013-01-18 15:39:00,
2013-01-18 08:41:00,38.7,-3.7,29.94,SSW,202,7.2,7.6,16,0.00,,---,0.00,VWS V14.01,2013-01-18 15:41:00,
2013-01-18 08:42:00,38.7,-3.7,29.94,SSW,197,5.8,7.6,16,0.00,,---,0.00,VWS V14.01,2013-01-18 15:42:00,
2013-01-18 08:45:00,38.7,0.0,29.94,SSW,199,5.4,7.6,19,0.00,,---,0.00,VWS V14.01,2013-01-18 15:45:00,
2013-01-18 08:46:00,38.5,-0.2,29.94,SSW,203,5.4,5.4,19,0.00,,---,0.00,VWS V14.01,2013-01-18 15:46:00,
2013-01-18 08:47:00,38.5,-0.2,29.94,SSW,199,4.9,5.4,19,0.00,,---,0.00,VWS V14.01,2013-01-18 15:47:00,
2013-01-18 08:51:00,38.5,-3.8,29.94,South,185,4.9,5.8,16,0.00,,---,0.00,VWS V14.01,2013-01-18 15:51:00,
2013-01-18 08:52:00,38.5,-3.8,29.94,SSW,199,4.9,5.8,16,0.00,,---,0.00,VWS V14.01,2013-01-18 15:52:00,
2013-01-18 08:56:00,37.9,-4.2,29.94,SSW,209,4.0,5.8,16,0.00,,---,0.00,VWS V14.01,2013-01-18 15:56:00,
2013-01-18 08:57:00,37.9,-4.2,29.94,SSW,203,3.6,5.8,16,0.00,,---,0.00,VWS V14.01,2013-01-18 15:57:00,
2013-01-18 09:01:00,37.8,-4.4,29.97,SSW,199,3.6,4.9,16,0.00,,---,0.00,VWS V14.01,2013-01-18 16:01:00,
2013-01-18 09:02:00,37.8,-0.8,29.97,SW,217,4.9,4.9,19,0.00,,---,0.00,VWS V14.01,2013-01-18 16:02:00,
2013-01-18 09:06:00,37.9,-0.6,29.97,SW,225,4.0,5.8,19,0.00,,---,0.00,VWS V14.01,2013-01-18 16:06:00,
2013-01-18 09:07:00,37.9,-0.6,29.97,SSW,204,4.0,5.8,19,0.00,,---,0.00,VWS V14.01,2013-01-18 16:07:00,
2013-01-18 09:11:00,38.5,-0.2,29.97,SSW,203,5.8,6.3,19,0.00,,---,0.00,VWS V14.01,2013-01-18 16:11:00,
2013-01-18 09:12:00,38.5,-0.2,29.97,South,180,4.9,6.3,19,0.00,,---,0.00,VWS V14.01,2013-01-18 16:12:00,
2013-01-18 09:16:00,39.0,-3.4,29.97,SSW,208,5.8,6.3,16,0.00,,---,0.00,VWS V14.01,2013-01-18 16:16:00,
2013-01-18 09:17:00,39.0,0.3,29.97,SSW,206,5.4,6.3,19,0.00,,---,0.00,VWS V14.01,2013-01-18 16:17:00,
2013-01-18 09:21:00,39.2,-0.7,29.97,SW,217,4.0,8.3,18,0.00,,---,0.00,VWS V14.01,2013-01-18 16:21:00,
2013-01-18 09:22:00,39.2,-0.7,29.97,SW,231,3.6,8.3,18,0.00,,---,0.00,VWS V14.01,2013-01-18 16:22:00,
2013-01-18 09:26:00,39.2,-0.7,29.97,SW,224,4.0,8.3,18,0.00,,---,0.00,VWS V14.01,2013-01-18 16:26:00,
2013-01-18 09:27:00,39.2,-0.7,29.97,WSW,248,3.1,8.3,18,0.00,,---,0.00,VWS V14.01,2013-01-18 16:27:00,
2013-01-18 09:31:00,39.2,-0.7,29.97,SSW,204,8.7,8.7,18,0.00,,---,0.00,VWS V14.01,2013-01-18 16:31:00,
2013-01-18 09:32:00,39.4,-0.6,29.97,SW,220,5.4,8.7,18,0.00,,---,0.00,VWS V14.01,2013-01-18 16:32:00,
2013-01-18 09:37:00,39.4,-0.6,29.97,SW,234,4.0,8.7,18,0.00,,---,0.00,VWS V14.01,2013-01-18 16:37:00,
2013-01-18 09:38:00,39.2,-0.7,29.97,WSW,242,5.4,8.7,18,0.00,,---,0.00,VWS V14.01,2013-01-18 16:38:00,
2013-01-18 09:42:00,39.2,-0.7,29.97,SSW,205,6.3,8.7,18,0.00,,---,0.00,VWS V14.01,2013-01-18 16:42:00,
2013-01-18 09:43:00,39.2,-0.7,29.97,SW,214,4.9,8.7,18,0.00,,---,0.00,VWS V14.01,2013-01-18 16:43:00,
2013-01-18 09:47:00,39.4,-0.6,29.97,SW,222,3.6,7.2,18,0.00,,---,0.00,VWS V14.01,2013-01-18 16:47:00,
2013-01-18 09:48:00,39.4,-0.6,29.97,SW,227,3.1,7.2,18,0.00,,---,0.00,VWS V14.01,2013-01-18 16:48:00,
2013-01-18 09:52:00,39.6,-0.4,29.97,SSW,211,5.4,8.3,18,0.00,,---,0.00,VWS V14.01,2013-01-18 16:52:00,
2013-01-18 09:53:00,39.6,-0.4,29.97,SSW,192,6.3,8.3,18,0.00,,---,0.00,VWS V14.01,2013-01-18 16:53:00,
2013-01-18 09:58:00,39.9,-0.1,29.94,SW,216,6.3,8.3,18,0.00,,---,0.00,VWS V14.01,2013-01-18 16:58:00,
2013-01-18 10:03:00,40.3,-2.3,29.94,SSW,211,5.8,8.7,16,0.00,,---,0.00,VWS V14.01,2013-01-18 17:03:00,
2013-01-18 10:08:00,40.5,-2.2,29.94,SSW,210,5.4,8.7,16,0.00,,---,0.00,VWS V14.01,2013-01-18 17:08:00,
2013-01-18 10:09:00,40.5,-2.2,29.94,SW,226,5.4,8.7,16,0.00,,---,0.00,VWS V14.01,2013-01-18 17:09:00,
2013-01-18 10:13:00,40.5,-2.2,29.94,WSW,251,6.3,8.7,16,0.00,,---,0.00,VWS V14.01,2013-01-18 17:13:00,
2013-01-18 10:14:00,40.5,0.3,29.94,WSW,245,4.9,8.7,18,0.00,,---,0.00,VWS V14.01,2013-01-18 17:14:00,
2013-01-18 10:18:00,40.3,0.2,29.94,WSW,242,3.6,5.4,18,0.00,,---,0.00,VWS V14.01,2013-01-18 17:18:00,
2013-01-18 10:19:00,40.5,0.3,29.94,SSW,207,4.9,5.8,18,0.00,,---,0.00,VWS V14.01,2013-01-18 17:19:00,
2013-01-18 10:23:00,40.6,0.5,29.94,SSW,212,4.9,8.7,18,0.00,,---,0.00,VWS V14.01,2013-01-18 17:23:00,
2013-01-18 10:24:00,40.8,-1.9,29.94,SW,227,7.6,8.7,16,0.00,,---,0.00,VWS V14.01,2013-01-18 17:24:00,
2013-01-18 10:25:00,40.8,-1.9,29.94,SW,230,4.9,8.7,16,0.00,,---,0.00,VWS V14.01,2013-01-18 17:25:00,
2013-01-18 10:28:00,41.2,0.9,29.94,West,260,4.0,8.7,18,0.00,,---,0.00,VWS V14.01,2013-01-18 17:28:00,
2013-01-18 10:29:00,41.2,0.9,29.94,SSW,200,4.5,8.7,18,0.00,,---,0.00,VWS V14.01,2013-01-18 17:29:00,
2013-01-18 10:30:00,41.2,0.9,29.94,SSW,203,4.9,8.7,18,0.00,,---,0.00,VWS V14.01,2013-01-18 17:30:00,
2013-01-18 10:33:00,41.5,1.2,29.94,SSW,209,4.0,5.4,18,0.00,,---,0.00,VWS V14.01,2013-01-18 17:33:00,
2013-01-18 10:34:00,41.5,-1.3,29.94,SSW,201,5.4,5.8,16,0.00,,---,0.00,VWS V14.01,2013-01-18 17:34:00,
2013-01-18 10:35:00,41.5,1.2,29.94,SSW,200,3.6,6.3,18,0.00,,---,0.00,VWS V14.01,2013-01-18 17:35:00,
2013-01-18 10:38:00,42.1,1.6,29.94,SSW,199,3.6,8.1,18,0.00,,---,0.00,VWS V14.01,2013-01-18 17:38:00,
2013-01-18 10:39:00,42.3,1.8,29.94,WSW,250,4.0,8.1,18,0.00,,---,0.00,VWS V14.01,2013-01-18 17:39:00,
2013-01-18 10:40:00,42.3,1.8,29.94,WSW,241,3.6,8.1,18,0.00,,---,0.00,VWS V14.01,2013-01-18 17:40:00,
2013-01-18 10:43:00,42.3,1.8,29.94,SSW,211,3.6,8.1,18,0.00,,---,0.00,VWS V14.01,2013-01-18 17:43:00,
2013-01-18 10:44:00,42.3,-0.7,29.94,SW,228,5.4,8.1,16,0.00,,---,0.00,VWS V14.01,2013-01-18 17:44:00,
2013-01-18 10:45:00,42.3,1.8,29.94,West,263,4.0,4.0,18,0.00,,---,0.00,VWS V14.01,2013-01-18 17:45:00,
2013-01-18 10:48:00,42.4,1.9,29.94,SW,234,5.8,5.8,18,0.00,,---,0.00,VWS V14.01,2013-01-18 17:48:00,
2013-01-18 10:50:00,42.4,1.9,29.94,West,260,6.3,6.3,18,0.00,,---,0.00,VWS V14.01,2013-01-18 17:50:00,
2013-01-18 10:53:00,42.4,1.9,29.94,SW,225,2.7,6.3,18,0.00,,---,0.00,VWS V14.01,2013-01-18 17:53:00,
2013-01-18 10:55:00,42.6,-0.4,29.94,West,260,2.7,6.3,16,0.00,,---,0.00,VWS V14.01,2013-01-18 17:55:00,
2013-01-18 10:56:00,42.6,2.1,29.94,SW,226,5.4,6.3,18,0.00,,---,0.00,VWS V14.01,2013-01-18 17:56:00,
2013-01-18 10:58:00,42.8,2.2,29.94,West,265,4.9,6.3,18,0.00,,---,0.00,VWS V14.01,2013-01-18 17:58:00,
2013-01-18 11:00:00,42.8,2.2,29.94,West,265,4.0,4.0,18,0.00,,---,0.00,VWS V14.01,2013-01-18 18:00:00,
2013-01-18 11:01:00,42.8,2.2,29.94,West,260,5.4,5.4,18,0.00,,---,0.00,VWS V14.01,2013-01-18 18:01:00,
2013-01-18 11:04:00,42.8,-1.6,29.94,SSW,199,8.3,8.3,15,0.00,,---,0.00,VWS V14.01,2013-01-18 18:04:00,
2013-01-18 11:05:00,43.0,-1.5,29.94,SSW,205,4.0,8.3,15,0.00,,---,0.00,VWS V14.01,2013-01-18 18:05:00,
2013-01-18 11:06:00,43.0,-1.5,29.94,SSW,204,5.8,8.3,15,0.00,,---,0.00,VWS V14.01,2013-01-18 18:06:00,
2013-01-18 11:09:00,43.2,-1.4,29.94,SW,228,4.0,8.3,15,0.00,,---,0.00,VWS V14.01,2013-01-18 18:09:00,
2013-01-18 11:10:00,43.2,-1.4,29.94,West,271,3.1,8.3,15,0.00,,---,0.00,VWS V14.01,2013-01-18 18:10:00,
2013-01-18 11:11:00,43.3,-1.2,29.94,West,271,3.1,8.3,15,0.00,,---,0.00,VWS V14.01,2013-01-18 18:11:00,
2013-01-18 11:14:00,43.3,-1.2,29.94,SW,234,2.7,8.3,15,0.00,,---,0.00,VWS V14.01,2013-01-18 18:14:00,
2013-01-18 11:15:00,43.3,-1.2,29.94,WSW,244,4.0,4.0,15,0.00,,---,0.00,VWS V14.01,2013-01-18 18:15:00,
2013-01-18 11:16:00,43.3,-1.2,29.94,SW,222,3.1,4.0,15,0.00,,---,0.00,VWS V14.01,2013-01-18 18:16:00,
2013-01-18 11:19:00,43.3,2.7,29.94,WSW,254,4.0,4.0,18,0.00,,---,0.00,VWS V14.01,2013-01-18 18:19:00,
2013-01-18 11:20:00,43.3,-1.2,29.94,SSW,204,4.0,4.9,15,0.00,,---,0.00,VWS V14.01,2013-01-18 18:20:00,
2013-01-18 11:21:00,43.3,-1.2,29.94,South,186,5.8,5.8,15,0.00,,---,0.00,VWS V14.01,2013-01-18 18:21:00,
2013-01-18 11:24:00,43.7,-0.9,29.94,SSW,192,3.1,5.8,15,0.00,,---,0.00,VWS V14.01,2013-01-18 18:24:00,
2013-01-18 11:25:00,43.7,-0.9,29.94,SSW,204,3.6,5.8,15,0.00,,---,0.00,VWS V14.01,2013-01-18 18:25:00,
2013-01-18 11:26:00,43.9,-0.8,29.94,SSW,207,3.1,5.8,15,0.00,,---,0.00,VWS V14.01,2013-01-18 18:26:00,
2013-01-18 11:27:00,43.9,-0.8,29.94,SSW,211,2.7,5.8,15,0.00,,---,0.00,VWS V14.01,2013-01-18 18:27:00,
2013-01-18 11:29:00,44.1,3.3,29.94,West,277,4.0,5.8,18,0.00,,---,0.00,VWS V14.01,2013-01-18 18:29:00,
2013-01-18 11:30:00,44.1,3.3,29.94,SW,235,3.1,3.1,18,0.00,,---,0.00,VWS V14.01,2013-01-18 18:30:00,
2013-01-18 11:31:00,44.1,3.3,29.94,WSW,250,2.7,3.1,18,0.00,,---,0.00,VWS V14.01,2013-01-18 18:31:00,
2013-01-18 11:32:00,44.1,-0.6,29.94,WSW,256,3.1,3.1,15,0.00,,---,0.00,VWS V14.01,2013-01-18 18:32:00,
2013-01-18 11:34:00,44.2,3.4,29.94,NW,320,3.6,4.0,18,0.00,,---,0.00,VWS V14.01,2013-01-18 18:34:00,
2013-01-18 11:36:00,44.2,3.4,29.94,North,357,3.6,4.0,18,0.00,,---,0.00,VWS V14.01,2013-01-18 18:36:00,
2013-01-18 11:37:00,44.2,-0.5,29.94,NW,310,2.7,4.0,15,0.00,,---,0.00,VWS V14.01,2013-01-18 18:37:00,
2013-01-18 11:40:00,44.6,-0.2,29.94,West,271,3.1,4.0,15,0.00,,---,0.00,VWS V14.01,2013-01-18 18:40:00,
2013-01-18 11:41:00,44.6,-0.2,29.94,SSW,205,2.7,4.0,15,0.00,,---,0.00,VWS V14.01,2013-01-18 18:41:00,
2013-01-18 11:42:00,44.6,2.5,29.94,SW,216,4.0,4.0,17,0.00,,---,0.00,VWS V14.01,2013-01-18 18:42:00,
2013-01-18 11:45:00,44.6,-0.2,29.94,SSW,211,3.1,6.7,15,0.00,,---,0.00,VWS V14.01,2013-01-18 18:45:00,
2013-01-18 11:46:00,44.8,0.0,29.94,SSW,200,5.8,6.3,15,0.00,,---,0.00,VWS V14.01,2013-01-18 18:46:00,
2013-01-18 11:47:00,44.8,0.0,29.94,SW,225,3.1,6.3,15,0.00,,---,0.00,VWS V14.01,2013-01-18 18:47:00,
2013-01-18 11:48:00,45.0,2.8,29.94,SW,235,2.7,6.3,17,0.00,,---,0.00,VWS V14.01,2013-01-18 18:48:00,
2013-01-18 11:50:00,45.1,0.3,29.94,SSW,205,3.6,6.3,15,0.00,,---,0.00,VWS V14.01,2013-01-18 18:50:00,
2013-01-18 11:51:00,45.3,0.4,29.94,SSW,199,3.6,6.3,15,0.00,,---,0.00,VWS V14.01,2013-01-18 18:51:00,
2013-01-18 11:52:00,45.3,0.4,29.94,SSW,197,2.7,6.3,15,0.00,,---,0.00,VWS V14.01,2013-01-18 18:52:00,
2013-01-18 11:53:00,45.3,0.4,29.94,South,188,3.1,6.3,15,0.00,,---,0.00,VWS V14.01,2013-01-18 18:53:00,
2013-01-18 11:55:00,45.7,0.7,29.94,SSW,210,2.7,6.3,15,0.00,,---,0.00,VWS V14.01,2013-01-18 18:55:00,
2013-01-18 11:56:00,45.9,0.8,29.94,West,276,3.1,6.3,15,0.00,,---,0.00,VWS V14.01,2013-01-18 18:56:00,
2013-01-18 11:57:00,45.9,0.8,29.94,West,270,3.6,6.3,15,0.00,,---,0.00,VWS V14.01,2013-01-18 18:57:00,
2013-01-18 11:58:00,45.9,0.8,29.94,WSW,247,3.6,6.3,15,0.00,,---,0.00,VWS V14.01,2013-01-18 18:58:00,
2013-01-18 12:00:00,45.7,0.7,29.94,SSW,200,6.3,6.3,15,0.00,,---,0.00,VWS V14.01,2013-01-18 19:00:00,
2013-01-18 12:01:00,45.7,0.7,29.94,SSW,209,4.9,6.3,15,0.00,,---,0.00,VWS V14.01,2013-01-18 19:01:00,
2013-01-18 12:02:00,45.5,0.6,29.94,SSW,204,3.1,6.3,15,0.00,,---,0.00,VWS V14.01,2013-01-18 19:02:00,
2013-01-18 12:03:00,45.5,0.6,29.94,SW,235,4.0,6.3,15,0.00,,---,0.00,VWS V14.01,2013-01-18 19:03:00,
2013-01-18 12:05:00,45.5,0.6,29.94,WSW,242,3.1,6.3,15,0.00,,---,0.00,VWS V14.01,2013-01-18 19:05:00,
2013-01-18 12:07:00,45.3,0.4,29.94,WSW,250,3.6,6.3,15,0.00,,---,0.00,VWS V14.01,2013-01-18 19:07:00,
2013-01-18 12:08:00,45.3,0.4,29.94,South,187,4.0,6.3,15,0.00,,---,0.00,VWS V14.01,2013-01-18 19:08:00,
2013-01-18 12:10:00,45.5,0.6,29.94,West,270,2.7,6.3,15,0.00,,---,0.00,VWS V14.01,2013-01-18 19:10:00,
2013-01-18 12:12:00,45.5,0.6,29.94,WNW,291,4.0,6.3,15,0.00,,---,0.00,VWS V14.01,2013-01-18 19:12:00,
2013-01-18 12:13:00,45.5,0.6,29.94,West,276,5.8,6.3,15,0.00,,---,0.00,VWS V14.01,2013-01-18 19:13:00,
2013-01-18 12:15:00,45.3,0.4,29.94,SSW,210,4.9,6.3,15,0.00,,---,0.00,VWS V14.01,2013-01-18 19:15:00,
2013-01-18 12:18:00,45.5,0.6,29.94,SSW,198,4.0,5.4,15,0.00,,---,0.00,VWS V14.01,2013-01-18 19:18:00,
2013-01-18 12:20:00,45.7,0.7,29.94,SSW,203,4.0,5.4,15,0.00,,---,0.00,VWS V14.01,2013-01-18 19:20:00,
2013-01-18 12:23:00,46.0,1.0,29.94,WSW,240,3.1,5.4,15,0.00,,---,0.00,VWS V14.01,2013-01-18 19:23:00,
2013-01-18 12:25:00,46.0,3.7,29.94,West,268,2.7,5.4,17,0.00,,---,0.00,VWS V14.01,2013-01-18 19:25:00,
2013-01-18 12:28:00,46.2,1.1,29.91,West,267,2.7,5.4,15,0.00,,---,0.00,VWS V14.01,2013-01-18 19:28:00,
2013-01-18 12:29:00,46.2,1.1,29.91,West,267,2.7,5.4,15,0.00,,---,0.00,VWS V14.01,2013-01-18 19:29:00,
2013-01-18 12:30:00,46.4,-0.2,29.91,West,279,3.1,3.6,14,0.00,,---,0.00,VWS V14.01,2013-01-18 19:30:00,
2013-01-18 12:33:00,46.8,0.1,29.91,West,279,0.0,3.6,14,0.00,,---,0.00,VWS V14.01,2013-01-18 19:33:00,
2013-01-18 12:34:00,46.8,0.1,29.91,West,281,0.0,3.6,14,0.00,,---,0.00,VWS V14.01,2013-01-18 19:34:00,
2013-01-18 12:35:00,46.8,0.1,29.91,WNW,291,2.7,3.6,14,0.00,,---,0.00,VWS V14.01,2013-01-18 19:35:00,
2013-01-18 12:38:00,47.1,0.4,29.91,WNW,299,0.0,3.6,14,0.00,,---,0.00,VWS V14.01,2013-01-18 19:38:00,
2013-01-18 12:39:00,47.1,0.4,29.91,NW,308,2.2,3.6,14,0.00,,---,0.00,VWS V14.01,2013-01-18 19:39:00,
2013-01-18 12:40:00,47.1,0.4,29.91,NW,314,2.2,3.6,14,0.00,,---,0.00,VWS V14.01,2013-01-18 19:40:00,
2013-01-18 12:43:00,47.1,0.4,29.91,NNW,336,4.0,4.0,14,0.00,,---,0.00,VWS V14.01,2013-01-18 19:43:00,
2013-01-18 12:44:00,46.9,0.2,29.91,NNW,338,3.6,4.0,14,0.00,,---,0.00,VWS V14.01,2013-01-18 19:44:00,
2013-01-18 12:45:00,46.9,0.2,29.91,North,353,3.1,3.6,14,0.00,,---,0.00,VWS V14.01,2013-01-18 19:45:00,
2013-01-18 12:49:00,46.6,-0.1,29.91,North,357,4.0,5.4,14,0.00,,---,0.00,VWS V14.01,2013-01-18 19:49:00,
2013-01-18 12:50:00,46.4,-0.2,29.91,North,6,2.7,5.4,14,0.00,,---,0.00,VWS V14.01,2013-01-18 19:50:00,
2013-01-18 12:51:00,46.4,-0.2,29.91,NNE,12,2.7,5.4,14,0.00,,---,0.00,VWS V14.01,2013-01-18 19:51:00,
2013-01-18 12:54:00,46.8,0.1,29.91,North,357,0.0,5.4,14,0.00,,---,0.00,VWS V14.01,2013-01-18 19:54:00,
2013-01-18 12:55:00,46.8,0.1,29.91,North,357,0.0,5.4,14,0.00,,---,0.00,VWS V14.01,2013-01-18 19:55:00,
2013-01-18 12:56:00,46.9,0.2,29.91,North,357,0.0,5.4,14,0.00,,---,0.00,VWS V14.01,2013-01-18 19:56:00,
2013-01-18 12:59:00,47.5,0.7,29.91,NNE,14,3.1,5.4,14,0.00,,---,0.00,VWS V14.01,2013-01-18 19:59:00,
2013-01-18 13:00:00,47.5,0.7,29.91,North,11,3.6,5.4,14,0.00,,---,0.00,VWS V14.01,2013-01-18 20:00:00,
2013-01-18 13:01:00,47.5,0.7,29.91,North,0,3.6,4.9,14,0.00,,---,0.00,VWS V14.01,2013-01-18 20:01:00,
2013-01-18 13:04:00,47.5,0.7,29.91,North,8,3.1,4.9,14,0.00,,---,0.00,VWS V14.01,2013-01-18 20:04:00,
2013-01-18 13:05:00,47.5,0.7,29.91,North,353,2.7,4.9,14,0.00,,---,0.00,VWS V14.01,2013-01-18 20:05:00,
2013-01-18 13:06:00,47.5,0.7,29.91,North,8,3.1,4.9,14,0.00,,---,0.00,VWS V14.01,2013-01-18 20:06:00,
2013-01-18 13:09:00,47.7,0.8,29.91,NNW,337,2.2,4.9,14,0.00,,---,0.00,VWS V14.01,2013-01-18 20:09:00,
2013-01-18 13:10:00,48.0,1.1,29.91,NNW,337,2.2,4.9,14,0.00,,---,0.00,VWS V14.01,2013-01-18 20:10:00,
2013-01-18 13:11:00,48.0,1.1,29.91,NNW,334,2.7,4.9,14,0.00,,---,0.00,VWS V14.01,2013-01-18 20:11:00,
2013-01-18 13:14:00,48.7,1.7,29.91,NNW,332,0.0,4.9,14,0.00,,---,0.00,VWS V14.01,2013-01-18 20:14:00,
2013-01-18 13:15:00,48.7,1.7,29.91,NNW,332,0.0,4.9,14,0.00,,---,0.00,VWS V14.01,2013-01-18 20:15:00,
2013-01-18 13:16:00,49.1,2.0,29.91,NNW,332,0.0,0.0,14,0.00,,---,0.00,VWS V14.01,2013-01-18 20:16:00,
2013-01-18 13:20:00,49.1,2.0,29.91,NNW,332,0.0,2.2,14,0.00,,---,0.00,VWS V14.01,2013-01-18 20:20:00,
2013-01-18 13:21:00,48.9,1.8,29.91,NW,316,3.1,3.1,14,0.00,,---,0.00,VWS V14.01,2013-01-18 20:21:00,
2013-01-18 13:25:00,48.7,1.7,29.91,NW,309,0.0,3.1,14,0.00,,---,0.00,VWS V14.01,2013-01-18 20:25:00,
2013-01-18 13:27:00,48.7,1.7,29.91,NW,309,0.0,3.1,14,0.00,,---,0.00,VWS V14.01,2013-01-18 20:27:00,
2013-01-18 13:30:00,48.9,1.8,29.91,East,90,2.2,3.1,14,0.00,,---,0.00,VWS V14.01,2013-01-18 20:30:00,
2013-01-18 13:32:00,49.1,2.0,29.91,ESE,112,2.2,4.0,14,0.00,,---,0.00,VWS V14.01,2013-01-18 20:32:00,
2013-01-18 13:35:00,49.3,2.1,29.91,SE,130,0.0,4.0,14,0.00,,---,0.00,VWS V14.01,2013-01-18 20:35:00,
2013-01-18 13:36:00,49.3,2.1,29.91,WSW,258,3.1,4.0,14,0.00,,---,0.00,VWS V14.01,2013-01-18 20:36:00,
2013-01-18 13:37:00,49.3,2.1,29.91,NW,317,3.1,4.0,14,0.00,,---,0.00,VWS V14.01,2013-01-18 20:37:00,
2013-01-18 13:40:00,48.9,1.8,29.91,NE,54,2.7,4.0,14,0.00,,---,0.00,VWS V14.01,2013-01-18 20:40:00,
2013-01-18 13:41:00,48.9,1.8,29.91,NNE,13,2.2,4.0,14,0.00,,---,0.00,VWS V14.01,2013-01-18 20:41:00,
2013-01-18 13:42:00,48.9,1.8,29.91,NNE,13,2.2,4.0,14,0.00,,---,0.00,VWS V14.01,2013-01-18 20:42:00,
2013-01-18 13:45:00,48.9,1.8,29.91,WSW,251,4.0,6.3,14,0.00,,---,0.00,VWS V14.01,2013-01-18 20:45:00,
2013-01-18 13:46:00,48.9,1.8,29.91,NNW,337,5.4,5.4,14,0.00,,---,0.00,VWS V14.01,2013-01-18 20:46:00,
2013-01-18 13:47:00,48.7,1.7,29.91,WNW,294,4.0,6.3,14,0.00,,---,0.00,VWS V14.01,2013-01-18 20:47:00,
2013-01-18 13:50:00,48.7,1.7,29.91,NW,306,2.2,8.1,14,0.00,,---,0.00,VWS V14.01,2013-01-18 20:50:00,
2013-01-18 13:51:00,48.9,1.8,29.91,West,273,6.3,8.1,14,0.00,,---,0.00,VWS V14.01,2013-01-18 20:51:00,
2013-01-18 13:52:00,48.9,1.8,29.91,WNW,284,5.4,8.1,14,0.00,,---,0.00,VWS V14.01,2013-01-18 20:52:00,
2013-01-18 13:55:00,49.1,2.0,29.91,North,0,5.4,8.1,14,0.00,,---,0.00,VWS V14.01,2013-01-18 20:55:00,
2013-01-18 13:56:00,49.1,2.0,29.91,ESE,103,7.6,8.1,14,0.00,,---,0.00,VWS V14.01,2013-01-18 20:56:00,
2013-01-18 13:57:00,48.9,1.8,29.88,NW,321,5.8,8.1,14,0.00,,---,0.00,VWS V14.01,2013-01-18 20:57:00,
2013-01-18 14:00:00,48.9,1.8,29.88,NW,315,3.6,8.1,14,0.00,,---,0.00,VWS V14.01,2013-01-18 21:00:00,
2013-01-18 14:01:00,48.9,1.8,29.88,North,353,5.4,5.4,14,0.00,,---,0.00,VWS V14.01,2013-01-18 21:01:00,
2013-01-18 14:03:00,49.3,2.1,29.88,North,7,2.7,5.4,14,0.04,,---,0.04,VWS V14.01,2013-01-18 21:03:00,
2013-01-18 14:05:00,49.6,2.4,29.88,North,6,3.6,5.4,14,0.04,,---,0.00,VWS V14.01,2013-01-18 21:05:00,
2013-01-18 14:06:00,49.6,2.4,29.88,North,353,4.9,5.4,14,0.04,,---,0.04,VWS V14.01,2013-01-18 21:06:00,
2013-01-18 14:08:00,49.8,2.5,29.88,NE,50,0.0,6.3,14,0.04,,---,0.04,VWS V14.01,2013-01-18 21:08:00,
2013-01-18 14:10:00,50.2,2.8,29.88,NE,56,4.0,6.3,14,0.04,,---,0.04,VWS V14.01,2013-01-18 21:10:00,
2013-01-18 14:11:00,50.5,3.1,29.88,ENE,69,3.1,8.7,14,0.04,,---,0.00,VWS V14.01,2013-01-18 21:11:00,
2013-01-18 14:13:00,50.7,3.3,29.91,West,259,5.4,8.7,14,0.04,,---,0.04,VWS V14.01,2013-01-18 21:13:00,
2013-01-18 14:15:00,50.9,3.4,29.91,WNW,300,4.9,4.9,14,0.04,,---,0.04,VWS V14.01,2013-01-18 21:15:00,
2013-01-18 14:16:00,50.9,3.4,29.91,NW,314,4.9,5.4,14,0.04,,---,0.04,VWS V14.01,2013-01-18 21:16:00,
2013-01-18 14:18:00,50.9,3.4,29.91,NW,320,4.0,11.0,14,0.04,,---,0.04,VWS V14.01,2013-01-18 21:18:00,
2013-01-18 14:20:00,50.7,3.3,29.91,WNW,302,4.9,11.0,14,0.04,,---,0.04,VWS V14.01,2013-01-18 21:20:00,
2013-01-18 14:21:00,50.5,3.1,29.91,WNW,283,3.6,11.0,14,0.04,,---,0.04,VWS V14.01,2013-01-18 21:21:00,
2013-01-18 14:22:00,50.5,3.1,29.91,NW,321,4.9,11.0,14,0.04,,---,0.04,VWS V14.01,2013-01-18 21:22:00,
2013-01-18 14:23:00,50.2,2.8,29.91,WNW,286,5.4,11.0,14,0.04,,---,0.04,VWS V14.01,2013-01-18 21:23:00,
2013-01-18 14:25:00,50.0,2.7,29.91,West,266,7.6,11.0,14,0.04,,---,0.04,VWS V14.01,2013-01-18 21:25:00,
2013-01-18 14:26:00,50.0,2.7,29.91,NW,305,5.4,11.0,14,0.04,,---,0.04,VWS V14.01,2013-01-18 21:26:00,
2013-01-18 14:27:00,50.0,2.7,29.91,WNW,297,5.8,11.0,14,0.04,,---,0.04,VWS V14.01,2013-01-18 21:27:00,
2013-01-18 14:29:00,50.0,2.7,29.91,SW,216,5.4,11.0,14,0.04,,---,0.04,VWS V14.01,2013-01-18 21:29:00,
2013-01-18 14:30:00,49.8,2.5,29.91,WNW,286,2.7,6.3,14,0.04,,---,0.04,VWS V14.01,2013-01-18 21:30:00,
2013-01-18 14:31:00,49.8,2.5,29.91,WNW,297,4.9,6.3,14,0.04,,---,0.04,VWS V14.01,2013-01-18 21:31:00,
2013-01-18 14:32:00,49.8,2.5,29.91,WNW,284,3.1,6.3,14,0.04,,---,0.04,VWS V14.01,2013-01-18 21:32:00,
2013-01-18 14:34:00,49.6,2.4,29.91,NW,310,3.1,6.3,14,0.04,,---,0.04,VWS V14.01,2013-01-18 21:34:00,
2013-01-18 14:35:00,49.5,2.3,29.91,NW,322,4.0,6.3,14,0.04,,---,0.04,VWS V14.01,2013-01-18 21:35:00,
2013-01-18 14:37:00,49.5,2.3,29.91,NNW,331,6.3,6.3,14,0.04,,---,0.04,VWS V14.01,2013-01-18 21:37:00,
2013-01-18 14:39:00,49.3,2.1,29.91,West,271,5.8,6.3,14,0.04,,---,0.04,VWS V14.01,2013-01-18 21:39:00,
2013-01-18 14:40:00,49.3,2.1,29.91,WNW,282,3.1,6.3,14,0.04,,---,0.04,VWS V14.01,2013-01-18 21:40:00,
2013-01-18 14:42:00,49.3,2.1,29.91,West,277,3.6,7.6,14,0.04,,---,0.04,VWS V14.01,2013-01-18 21:42:00,
2013-01-18 14:43:00,49.3,2.1,29.91,NW,306,3.6,7.6,14,0.04,,---,0.04,VWS V14.01,2013-01-18 21:43:00,
2013-01-18 14:44:00,49.3,2.1,29.91,North,353,3.1,7.6,14,0.04,,---,0.04,VWS V14.01,2013-01-18 21:44:00,
2013-01-18 14:46:00,49.3,2.1,29.91,WNW,288,6.3,6.3,14,0.04,,---,0.04,VWS V14.01,2013-01-18 21:46:00,
2013-01-18 14:47:00,49.3,2.1,29.91,WNW,295,4.0,6.3,14,0.04,,---,0.04,VWS V14.01,2013-01-18 21:47:00,
2013-01-18 14:48:00,49.3,2.1,29.91,NW,313,3.1,6.3,14,0.04,,---,0.04,VWS V14.01,2013-01-18 21:48:00,
2013-01-18 14:49:00,49.3,2.1,29.91,WNW,284,3.6,6.3,14,0.04,,---,0.04,VWS V14.01,2013-01-18 21:49:00,
2013-01-18 14:51:00,49.3,2.1,29.91,NNE,16,8.1,8.1,14,0.04,,---,0.04,VWS V14.01,2013-01-18 21:51:00,
2013-01-18 14:52:00,49.3,2.1,29.91,WNW,296,4.0,8.1,14,0.04,,---,0.04,VWS V14.01,2013-01-18 21:52:00,
2013-01-18 14:53:00,49.3,2.1,29.91,WNW,297,4.0,8.1,14,0.04,,---,0.04,VWS V14.01,2013-01-18 21:53:00,
2013-01-18 14:54:00,49.5,2.3,29.91,WNW,300,3.6,8.1,14,0.04,,---,0.04,VWS V14.01,2013-01-18 21:54:00,
2013-01-18 14:56:00,49.5,2.3,29.91,NNW,343,6.3,8.1,14,0.04,,---,0.04,VWS V14.01,2013-01-18 21:56:00,
2013-01-18 14:57:00,49.5,2.3,29.91,NNW,341,2.2,8.1,14,0.04,,---,0.04,VWS V14.01,2013-01-18 21:57:00,
2013-01-18 14:58:00,49.6,2.4,29.91,NNW,331,4.9,8.1,14,0.04,,---,0.04,VWS V14.01,2013-01-18 21:58:00,
2013-01-18 15:00:00,49.6,2.4,29.91,WNW,300,4.0,4.0,14,0.04,,---,0.04,VWS V14.01,2013-01-18 22:00:00,
2013-01-18 15:01:00,49.6,2.4,29.91,WNW,299,3.1,4.0,14,0.04,,---,0.04,VWS V14.01,2013-01-18 22:01:00,
2013-01-18 15:02:00,49.8,2.5,29.91,West,271,3.6,4.0,14,0.04,,---,0.04,VWS V14.01,2013-01-18 22:02:00,
2013-01-18 15:04:00,49.6,2.4,29.91,NW,317,2.7,4.0,14,0.04,,---,0.04,VWS V14.01,2013-01-18 22:04:00,
2013-01-18 15:05:00,49.8,2.5,29.91,North,0,0.0,5.8,14,0.04,,---,0.04,VWS V14.01,2013-01-18 22:05:00,
2013-01-18 15:06:00,49.8,2.5,29.91,West,281,3.1,5.8,14,0.04,,---,0.04,VWS V14.01,2013-01-18 22:06:00,
2013-01-18 15:08:00,49.8,2.5,29.91,NW,318,3.1,5.8,14,0.04,,---,0.04,VWS V14.01,2013-01-18 22:08:00,
2013-01-18 15:09:00,49.8,2.5,29.91,WNW,299,5.4,5.8,14,0.04,,---,0.04,VWS V14.01,2013-01-18 22:09:00,
2013-01-18 15:10:00,49.8,2.5,29.91,NW,310,4.0,5.8,14,0.04,,---,0.04,VWS V14.01,2013-01-18 22:10:00,
2013-01-18 15:12:00,49.8,2.5,29.91,NW,309,4.9,5.8,14,0.04,,---,0.04,VWS V14.01,2013-01-18 22:12:00,
2013-01-18 15:13:00,49.8,2.5,29.91,NW,308,5.8,7.6,14,0.08,,---,0.08,VWS V14.01,2013-01-18 22:13:00,
2013-01-18 15:14:00,49.8,2.5,29.91,NW,313,5.4,7.6,14,0.08,,---,0.08,VWS V14.01,2013-01-18 22:14:00,
2013-01-18 15:15:00,49.5,2.3,29.91,WNW,287,4.9,8.1,14,0.04,,---,0.08,VWS V14.01,2013-01-18 22:15:00,
2013-01-18 15:17:00,49.3,2.1,29.91,NW,306,5.4,8.1,14,0.04,,---,0.08,VWS V14.01,2013-01-18 22:17:00,
2013-01-18 15:18:00,48.9,1.8,29.91,WNW,284,7.6,8.1,14,0.04,,---,0.08,VWS V14.01,2013-01-18 22:18:00,
2013-01-18 15:19:00,48.9,1.8,29.91,NNW,332,5.8,8.1,14,0.04,,---,0.08,VWS V14.01,2013-01-18 22:19:00,
2013-01-18 15:21:00,48.9,1.8,29.91,WNW,294,3.1,8.1,14,0.04,,---,0.08,VWS V14.01,2013-01-18 22:21:00,
2013-01-18 15:22:00,48.9,1.8,29.91,West,280,4.9,8.1,14,0.04,,---,0.08,VWS V14.01,2013-01-18 22:22:00,
2013-01-18 15:23:00,48.9,1.8,29.91,WNW,291,2.2,8.1,14,0.04,,---,0.08,VWS V14.01,2013-01-18 22:23:00,
2013-01-18 15:24:00,48.7,1.7,29.91,NNW,328,2.7,8.1,14,0.04,,---,0.08,VWS V14.01,2013-01-18 22:24:00,
2013-01-18 15:26:00,48.7,1.7,29.91,NW,312,2.7,8.1,14,0.04,,---,0.08,VWS V14.01,2013-01-18 22:26:00,
2013-01-18 15:27:00,48.7,1.7,29.91,NW,318,2.2,8.1,14,0.04,,---,0.08,VWS V14.01,2013-01-18 22:27:00,
2013-01-18 15:28:00,48.6,1.5,29.91,West,274,2.7,8.1,14,0.04,,---,0.08,VWS V14.01,2013-01-18 22:28:00,
2013-01-18 15:29:00,48.6,1.5,29.91,West,262,3.6,8.1,14,0.04,,---,0.08,VWS V14.01,2013-01-18 22:29:00,
2013-01-18 15:31:00,48.4,1.4,29.91,WSW,255,2.7,3.6,14,0.04,,---,0.08,VWS V14.01,2013-01-18 22:31:00,
2013-01-18 15:32:00,48.2,1.2,29.91,SW,215,2.2,3.6,14,0.04,,---,0.08,VWS V14.01,2013-01-18 22:32:00,
2013-01-18 15:33:00,48.2,1.2,29.91,West,277,3.6,4.0,14,0.04,,---,0.08,VWS V14.01,2013-01-18 22:33:00,
2013-01-18 15:34:00,48.0,1.1,29.91,West,280,3.1,4.0,14,0.04,,---,0.08,VWS V14.01,2013-01-18 22:34:00,
2013-01-18 15:36:00,47.8,1.0,29.91,SSW,196,4.0,5.4,14,0.04,,---,0.08,VWS V14.01,2013-01-18 22:36:00,
2013-01-18 15:37:00,47.8,1.0,29.91,West,270,3.6,5.4,14,0.04,,---,0.08,VWS V14.01,2013-01-18 22:37:00,
2013-01-18 15:39:00,47.7,0.8,29.91,WNW,286,0.0,5.4,14,0.04,,---,0.08,VWS V14.01,2013-01-18 22:39:00,
2013-01-18 15:40:00,47.7,0.8,29.91,WNW,286,0.0,5.4,14,0.04,,---,0.08,VWS V14.01,2013-01-18 22:40:00,
2013-01-18 15:41:00,47.7,0.8,29.91,WSW,247,2.2,5.4,14,0.04,,---,0.08,VWS V14.01,2013-01-18 22:41:00,
2013-01-18 15:42:00,47.5,0.7,29.91,WNW,299,2.7,5.4,14,0.04,,---,0.08,VWS V14.01,2013-01-18 22:42:00,
2013-01-18 15:44:00,47.5,0.7,29.91,SW,215,2.7,5.4,14,0.04,,---,0.08,VWS V14.01,2013-01-18 22:44:00,
2013-01-18 15:45:00,47.3,0.5,29.91,West,277,3.6,4.9,14,0.04,,---,0.08,VWS V14.01,2013-01-18 22:45:00,
2013-01-18 15:46:00,47.3,0.5,29.91,WNW,284,5.8,5.8,14,0.04,,---,0.08,VWS V14.01,2013-01-18 22:46:00,
2013-01-18 15:47:00,47.3,0.5,29.91,WNW,287,4.0,5.8,14,0.04,,---,0.08,VWS V14.01,2013-01-18 22:47:00,
2013-01-18 15:49:00,47.1,0.4,29.91,WNW,284,3.6,5.8,14,0.04,,---,0.08,VWS V14.01,2013-01-18 22:49:00,
2013-01-18 15:50:00,47.1,0.4,29.91,WNW,288,0.0,5.8,14,0.04,,---,0.08,VWS V14.01,2013-01-18 22:50:00,
2013-01-18 15:51:00,47.1,0.4,29.91,WSW,245,2.7,5.8,14,0.04,,---,0.08,VWS V14.01,2013-01-18 22:51:00,
2013-01-18 15:52:00,47.1,0.4,29.91,SW,231,3.1,5.8,14,0.04,,---,0.08,VWS V14.01,2013-01-18 22:52:00,
2013-01-18 15:54:00,46.8,0.1,29.91,WSW,249,3.1,5.8,14,0.04,,---,0.08,VWS V14.01,2013-01-18 22:54:00,
2013-01-18 15:55:00,46.8,0.1,29.91,WNW,299,4.0,5.8,14,0.04,,---,0.08,VWS V14.01,2013-01-18 22:55:00,
2013-01-18 15:56:00,46.8,0.1,29.91,NW,317,2.7,5.8,14,0.04,,---,0.08,VWS V14.01,2013-01-18 22:56:00,
2013-01-18 15:57:00,46.8,0.1,29.91,WNW,299,3.6,5.8,14,0.04,,---,0.08,VWS V14.01,2013-01-18 22:57:00,
2013-01-18 15:59:00,46.6,-0.1,29.91,WNW,295,3.6,5.8,14,0.04,,---,0.08,VWS V14.01,2013-01-18 22:59:00,
2013-01-18 16:01:00,46.6,-0.1,29.91,West,280,0.0,4.0,14,0.04,,---,0.08,VWS V14.01,2013-01-18 23:01:00,
2013-01-18 16:02:00,46.4,-0.2,29.91,West,262,3.1,4.0,14,0.04,,---,0.08,VWS V14.01,2013-01-18 23:02:00,
2013-01-18 16:05:00,46.4,-0.2,29.91,West,281,3.1,4.0,14,0.04,,---,0.08,VWS V14.01,2013-01-18 23:05:00,
2013-01-18 16:06:00,46.4,-0.2,29.91,West,279,2.7,4.0,14,0.04,,---,0.08,VWS V14.01,2013-01-18 23:06:00,
2013-01-18 16:07:00,46.4,-0.2,29.91,WSW,251,2.7,4.0,14,0.04,,---,0.08,VWS V14.01,2013-01-18 23:07:00,
2013-01-18 16:10:00,46.6,-0.1,29.91,WNW,297,5.4,5.4,14,0.04,,---,0.08,VWS V14.01,2013-01-18 23:10:00,
2013-01-18 16:11:00,46.6,-0.1,29.91,WSW,241,5.4,6.7,14,0.04,,---,0.08,VWS V14.01,2013-01-18 23:11:00,
2013-01-18 16:12:00,46.6,-0.1,29.91,WNW,286,2.7,6.7,14,0.04,,---,0.08,VWS V14.01,2013-01-18 23:12:00,
2013-01-18 16:13:00,46.6,-0.1,29.91,SW,228,2.7,6.7,14,0.04,,---,0.08,VWS V14.01,2013-01-18 23:13:00,
2013-01-18 16:15:00,46.6,-0.1,29.91,West,276,2.7,2.7,14,0.00,,---,0.08,VWS V14.01,2013-01-18 23:15:00,
2013-01-18 16:16:00,46.6,-0.1,29.91,WNW,295,2.7,3.1,14,0.00,,---,0.08,VWS V14.01,2013-01-18 23:16:00,
2013-01-18 16:17:00,46.6,-0.1,29.91,NE,56,2.2,3.1,14,0.00,,---,0.08,VWS V14.01,2013-01-18 23:17:00,
2013-01-18 16:18:00,46.4,-0.2,29.91,ENE,67,2.2,4.0,14,0.00,,---,0.08,VWS V14.01,2013-01-18 23:18:00,
2013-01-18 16:20:00,46.4,-0.2,29.91,WNW,285,3.6,6.3,14,0.00,,---,0.08,VWS V14.01,2013-01-18 23:20:00,
2013-01-18 16:21:00,46.2,1.1,29.91,West,272,2.2,6.3,15,0.00,,---,0.08,VWS V14.01,2013-01-18 23:21:00,
2013-01-18 16:23:00,46.2,1.1,29.91,NE,51,2.2,6.3,15,0.00,,---,0.08,VWS V14.01,2013-01-18 23:23:00,
2013-01-18 16:25:00,46.0,1.0,29.91,NNE,24,3.1,6.3,15,0.00,,---,0.08,VWS V14.01,2013-01-18 23:25:00,
2013-01-18 16:26:00,46.0,1.0,29.91,West,279,2.7,6.3,15,0.00,,---,0.08,VWS V14.01,2013-01-18 23:26:00,
2013-01-18 16:28:00,46.0,1.0,29.91,SSW,194,7.2,7.2,15,0.00,,---,0.08,VWS V14.01,2013-01-18 23:28:00,
2013-01-18 16:29:00,46.0,1.0,29.91,WSW,237,8.3,8.3,15,0.00,,---,0.08,VWS V14.01,2013-01-18 23:29:00,
2013-01-18 16:30:00,45.9,0.8,29.91,NNW,338,5.8,5.8,15,0.00,,---,0.08,VWS V14.01,2013-01-18 23:30:00,
2013-01-18 16:31:00,45.9,0.8,29.91,West,268,3.1,5.8,15,0.00,,---,0.08,VWS V14.01,2013-01-18 23:31:00,
2013-01-18 16:33:00,45.9,0.8,29.91,WNW,292,2.7,5.8,15,0.00,,---,0.08,VWS V14.01,2013-01-18 23:33:00,
2013-01-18 16:34:00,45.7,0.7,29.91,WNW,292,2.7,5.8,15,0.00,,---,0.08,VWS V14.01,2013-01-18 23:34:00,
2013-01-18 16:35:00,45.7,0.7,29.91,West,278,2.7,5.8,15,0.00,,---,0.08,VWS V14.01,2013-01-18 23:35:00,
2013-01-18 16:37:00,45.5,0.6,29.91,WSW,239,2.7,5.8,15,0.00,,---,0.08,VWS V14.01,2013-01-18 23:37:00,
2013-01-18 16:38:00,45.5,0.6,29.91,ESE,114,2.2,5.8,15,0.00,,---,0.08,VWS V14.01,2013-01-18 23:38:00,
2013-01-18 16:39:00,45.5,0.6,29.91,East,84,2.7,5.8,15,0.00,,---,0.08,VWS V14.01,2013-01-18 23:39:00,
2013-01-18 16:40:00,45.3,0.4,29.91,WSW,247,3.6,5.8,15,0.00,,---,0.08,VWS V14.01,2013-01-18 23:40:00,
2013-01-18 16:42:00,45.1,0.3,29.91,WNW,287,3.1,5.8,15,0.00,,---,0.08,VWS V14.01,2013-01-18 23:42:00,
2013-01-18 16:44:00,45.0,0.1,29.91,NW,317,5.8,5.8,15,0.00,,---,0.08,VWS V14.01,2013-01-18 23:44:00,
2013-01-18 16:46:00,44.8,0.0,29.91,West,279,3.6,5.4,15,0.00,,---,0.08,VWS V14.01,2013-01-18 23:46:00,
2013-01-18 16:47:00,44.8,0.0,29.91,West,281,3.1,5.4,15,0.00,,---,0.08,VWS V14.01,2013-01-18 23:47:00,
2013-01-18 16:49:00,44.8,0.0,29.91,North,6,4.0,5.4,15,0.00,,---,0.08,VWS V14.01,2013-01-18 23:49:00,
2013-01-18 16:51:00,44.6,-0.2,29.91,WNW,288,0.0,5.8,15,0.00,,---,0.08,VWS V14.01,2013-01-18 23:51:00,
2013-01-18 16:52:00,44.6,-0.2,29.91,SE,144,3.1,5.8,15,0.00,,---,0.08,VWS V14.01,2013-01-18 23:52:00,
2013-01-18 16:54:00,44.6,-0.2,29.91,NNW,333,2.7,8.1,15,0.00,,---,0.08,VWS V14.01,2013-01-18 23:54:00,
2013-01-18 16:56:00,44.6,-0.2,29.91,NW,306,2.7,8.1,15,0.00,,---,0.08,VWS V14.01,2013-01-18 23:56:00,
2013-01-18 16:57:00,44.6,-0.2,29.91,WNW,303,2.2,8.1,15,0.00,,---,0.08,VWS V14.01,2013-01-18 23:57:00,
2013-01-18 16:59:00,44.4,-0.3,29.91,WSW,239,2.2,8.1,15,0.00,,---,0.08,VWS V14.01,2013-01-18 23:59:00,
2013-01-18 17:01:00,44.2,-0.5,29.91,SSW,212,2.7,4.0,15,0.00,,---,0.08,VWS V14.01,2013-01-19 00:01:00,
2013-01-18 17:02:00,44.2,-0.5,29.91,WNW,293,3.1,4.0,15,0.00,,---,0.08,VWS V14.01,2013-01-19 00:02:00,
2013-01-18 17:04:00,44.1,-0.6,29.91,West,259,7.2,7.2,15,0.00,,---,0.08,VWS V14.01,2013-01-19 00:04:00,
2013-01-18 17:06:00,44.1,-0.6,29.91,West,259,4.5,8.1,15,0.00,,---,0.08,VWS V14.01,2013-01-19 00:06:00,
2013-01-18 17:07:00,44.1,-0.6,29.91,WNW,292,5.4,8.1,15,0.00,,---,0.08,VWS V14.01,2013-01-19 00:07:00,
2013-01-18 17:09:00,43.9,-0.8,29.91,West,272,4.9,8.1,15,0.00,,---,0.08,VWS V14.01,2013-01-19 00:09:00,
2013-01-18 17:11:00,43.7,-0.9,29.91,WNW,298,3.1,8.1,15,0.00,,---,0.08,VWS V14.01,2013-01-19 00:11:00,
2013-01-18 17:12:00,43.7,-0.9,29.91,WNW,287,3.1,8.1,15,0.00,,---,0.08,VWS V14.01,2013-01-19 00:12:00,
2013-01-18 17:14:00,43.5,-1.1,29.91,West,270,4.0,8.1,15,0.00,,---,0.08,VWS V14.01,2013-01-19 00:14:00,
2013-01-18 17:15:00,43.5,-1.1,29.91,WNW,288,4.0,5.8,15,0.00,,---,0.08,VWS V14.01,2013-01-19 00:15:00,
2013-01-18 17:16:00,43.3,-1.2,29.91,West,271,4.0,6.3,15,0.00,,---,0.08,VWS V14.01,2013-01-19 00:16:00,
2013-01-18 17:17:00,43.3,-1.2,29.91,SW,235,3.1,6.3,15,0.00,,---,0.08,VWS V14.01,2013-01-19 00:17:00,
2013-01-18 17:20:00,43.5,-1.1,29.91,WSW,253,3.1,7.2,15,0.00,,---,0.08,VWS V14.01,2013-01-19 00:20:00,
2013-01-18 17:22:00,43.7,-0.9,29.91,SSW,207,6.3,7.6,15,0.00,,---,0.08,VWS V14.01,2013-01-19 00:22:00,
2013-01-18 17:25:00,44.1,-0.6,29.91,West,271,5.8,7.6,15,0.00,,---,0.08,VWS V14.01,2013-01-19 00:25:00,
2013-01-18 17:27:00,44.2,-0.5,29.91,WSW,250,2.7,7.6,15,0.00,,---,0.08,VWS V14.01,2013-01-19 00:27:00,
2013-01-18 17:30:00,44.1,-0.6,29.91,WNW,293,4.9,4.9,15,0.00,,---,0.08,VWS V14.01,2013-01-19 00:30:00,
2013-01-18 17:32:00,43.9,-0.8,29.91,WSW,251,5.4,5.8,15,0.00,,---,0.08,VWS V14.01,2013-01-19 00:32:00,
2013-01-18 17:33:00,44.1,-0.6,29.91,WSW,245,3.1,5.8,15,0.00,,---,0.08,VWS V14.01,2013-01-19 00:33:00,
2013-01-18 17:35:00,44.1,-0.6,29.91,West,269,5.4,8.1,15,0.00,,---,0.08,VWS V14.01,2013-01-19 00:35:00,
2013-01-18 17:36:00,44.1,-0.6,29.91,WSW,257,4.0,8.1,15,0.00,,---,0.08,VWS V14.01,2013-01-19 00:36:00,
2013-01-18 17:37:00,44.2,-0.5,29.91,West,272,4.0,9.2,15,0.00,,---,0.08,VWS V14.01,2013-01-19 00:37:00,
2013-01-18 17:38:00,44.2,-0.5,29.91,West,271,3.6,9.2,15,0.00,,---,0.08,VWS V14.01,2013-01-19 00:38:00,
2013-01-18 17:41:00,44.2,-0.5,29.91,WNW,297,3.6,9.2,15,0.00,,---,0.08,VWS V14.01,2013-01-19 00:41:00,
2013-01-18 17:43:00,44.1,-0.6,29.91,NW,305,3.6,9.2,15,0.00,,---,0.08,VWS V14.01,2013-01-19 00:43:00,
2013-01-18 17:46:00,44.1,-0.6,29.91,SW,227,3.6,8.1,15,0.00,,---,0.08,VWS V14.01,2013-01-19 00:46:00,
2013-01-18 17:48:00,44.1,-0.6,29.91,WNW,299,3.1,8.1,15,0.00,,---,0.08,VWS V14.01,2013-01-19 00:48:00,
2013-01-18 17:49:00,43.9,-0.8,29.91,WNW,287,2.7,8.1,15,0.00,,---,0.08,VWS V14.01,2013-01-19 00:49:00,
2013-01-18 17:51:00,43.7,-0.9,29.91,SSW,208,6.3,8.1,15,0.00,,---,0.08,VWS V14.01,2013-01-19 00:51:00,
2013-01-18 17:53:00,43.7,-0.9,29.91,SW,223,0.0,8.1,15,0.00,,---,0.08,VWS V14.01,2013-01-19 00:53:00,
2013-01-18 17:54:00,43.5,-1.1,29.91,SSW,207,2.2,8.1,15,0.00,,---,0.08,VWS V14.01,2013-01-19 00:54:00,
2013-01-18 17:56:00,43.3,-1.2,29.91,West,272,2.2,8.1,15,0.00,,---,0.08,VWS V14.01,2013-01-19 00:56:00,
2013-01-18 17:58:00,43.3,-1.2,29.91,NNW,337,0.0,8.1,15,0.00,,---,0.08,VWS V14.01,2013-01-19 00:58:00,
2013-01-18 17:59:00,43.3,-1.2,29.91,North,357,4.0,8.1,15,0.00,,---,0.08,VWS V14.01,2013-01-19 00:59:00,
2013-01-18 18:01:00,43.2,-1.4,29.91,North,11,5.8,5.8,15,0.00,,---,0.08,VWS V14.01,2013-01-19 01:01:00,
2013-01-18 18:02:00,43.2,-1.4,29.91,NNE,12,4.9,5.8,15,0.00,,---,0.08,VWS V14.01,2013-01-19 01:02:00,
2013-01-18 18:04:00,43.0,-1.5,29.91,NE,54,0.0,5.8,15,0.00,,---,0.08,VWS V14.01,2013-01-19 01:04:00,
2013-01-18 18:05:00,43.0,-1.5,29.91,NE,54,0.0,5.8,15,0.00,,---,0.08,VWS V14.01,2013-01-19 01:05:00,
2013-01-18 18:06:00,42.8,-1.6,29.91,NE,54,0.0,5.8,15,0.00,,---,0.08,VWS V14.01,2013-01-19 01:06:00,
2013-01-18 18:07:00,42.6,-0.4,29.91,ENE,70,2.7,5.8,16,0.00,,---,0.08,VWS V14.01,2013-01-19 01:07:00,
2013-01-18 18:09:00,42.4,-0.6,29.91,ENE,71,2.7,5.8,16,0.00,,---,0.08,VWS V14.01,2013-01-19 01:09:00,
2013-01-18 18:10:00,42.3,-0.7,29.91,ENE,71,2.2,5.8,16,0.00,,---,0.08,VWS V14.01,2013-01-19 01:10:00,
2013-01-18 18:11:00,42.1,-0.9,29.91,ENE,71,0.0,5.8,16,0.00,,---,0.08,VWS V14.01,2013-01-19 01:11:00,
2013-01-18 18:12:00,41.7,-1.2,29.91,SE,138,2.2,5.8,16,0.00,,---,0.08,VWS V14.01,2013-01-19 01:12:00,
2013-01-18 18:14:00,41.4,-1.5,29.91,SE,139,0.0,5.8,16,0.00,,---,0.08,VWS V14.01,2013-01-19 01:14:00,
2013-01-18 18:15:00,41.4,-1.5,29.91,SE,139,0.0,0.0,16,0.00,,---,0.08,VWS V14.01,2013-01-19 01:15:00,
2013-01-18 18:16:00,41.2,-1.6,29.91,SE,139,0.0,0.0,16,0.00,,---,0.08,VWS V14.01,2013-01-19 01:16:00,
2013-01-18 18:17:00,41.0,-1.7,29.91,SE,139,0.0,0.0,16,0.00,,---,0.08,VWS V14.01,2013-01-19 01:17:00,
2013-01-18 18:20:00,40.8,-1.9,29.91,SE,135,2.2,2.2,16,0.00,,---,0.08,VWS V14.01,2013-01-19 01:20:00,
2013-01-18 18:21:00,40.6,-2.0,29.91,SE,125,0.0,3.1,16,0.00,,---,0.08,VWS V14.01,2013-01-19 01:21:00,
2013-01-18 18:22:00,40.6,-2.0,29.91,NE,53,2.7,3.1,16,0.00,,---,0.08,VWS V14.01,2013-01-19 01:22:00,
2013-01-18 18:25:00,41.0,-1.7,29.91,NW,320,2.2,4.0,16,0.00,,---,0.08,VWS V14.01,2013-01-19 01:25:00,
2013-01-18 18:26:00,41.0,-1.7,29.91,NW,321,0.0,4.0,16,0.00,,---,0.08,VWS V14.01,2013-01-19 01:26:00,
2013-01-18 18:28:00,41.2,-1.6,29.94,NNW,345,4.5,4.9,16,0.00,,---,0.08,VWS V14.01,2013-01-19 01:28:00,
2013-01-18 18:30:00,41.4,-1.5,29.94,NW,312,3.1,3.1,16,0.00,,---,0.08,VWS V14.01,2013-01-19 01:30:00,
2013-01-18 18:32:00,41.7,-1.2,29.94,NW,314,2.2,3.6,16,0.00,,---,0.08,VWS V14.01,2013-01-19 01:32:00,
2013-01-18 18:33:00,41.7,-1.2,29.94,NNW,332,4.0,4.0,16,0.00,,---,0.08,VWS V14.01,2013-01-19 01:33:00,
2013-01-18 18:35:00,41.7,-1.2,29.94,WNW,293,2.7,4.0,16,0.00,,---,0.08,VWS V14.01,2013-01-19 01:35:00,
2013-01-18 18:36:00,41.7,-1.2,29.94,WNW,288,3.6,4.0,16,0.00,,---,0.08,VWS V14.01,2013-01-19 01:36:00,
2013-01-18 18:37:00,41.7,-1.2,29.94,WNW,290,4.0,6.3,16,0.00,,---,0.08,VWS V14.01,2013-01-19 01:37:00,
2013-01-18 18:38:00,41.5,-1.3,29.94,WNW,289,3.6,6.3,16,0.00,,---,0.08,VWS V14.01,2013-01-19 01:38:00,
2013-01-18 18:40:00,41.5,-1.3,29.94,West,273,4.0,6.3,16,0.00,,---,0.08,VWS V14.01,2013-01-19 01:40:00,
2013-01-18 18:42:00,41.5,-1.3,29.94,WNW,291,2.7,6.3,16,0.00,,---,0.08,VWS V14.01,2013-01-19 01:42:00,
2013-01-18 18:43:00,41.4,-1.5,29.91,West,271,3.1,6.3,16,0.00,,---,0.08,VWS V14.01,2013-01-19 01:43:00,
2013-01-18 18:46:00,41.4,-1.5,29.91,West,266,2.7,4.0,16,0.00,,---,0.08,VWS V14.01,2013-01-19 01:46:00,
2013-01-18 18:47:00,41.4,-1.5,29.91,West,272,4.0,4.0,16,0.00,,---,0.08,VWS V14.01,2013-01-19 01:47:00,
2013-01-18 18:49:00,41.2,-1.6,29.91,WNW,302,2.7,4.0,16,0.00,,---,0.08,VWS V14.01,2013-01-19 01:49:00,
2013-01-18 18:51:00,41.2,-1.6,29.91,North,357,3.6,4.0,16,0.00,,---,0.08,VWS V14.01,2013-01-19 01:51:00,
2013-01-18 18:52:00,41.2,-1.6,29.91,NNE,16,3.1,4.0,16,0.00,,---,0.08,VWS V14.01,2013-01-19 01:52:00,
2013-01-18 18:54:00,41.4,-1.5,29.91,NW,316,0.0,5.4,16,0.00,,---,0.08,VWS V14.01,2013-01-19 01:54:00,
2013-01-18 18:56:00,41.5,-1.3,29.91,NNE,12,3.1,5.4,16,0.00,,---,0.08,VWS V14.01,2013-01-19 01:56:00,
2013-01-18 18:57:00,41.7,-1.2,29.94,North,0,2.2,5.4,16,0.00,,---,0.08,VWS V14.01,2013-01-19 01:57:00,
2013-01-18 18:59:00,41.7,-1.2,29.94,NE,51,3.6,5.4,16,0.00,,---,0.08,VWS V14.01,2013-01-19 01:59:00,
2013-01-18 19:01:00,41.7,-1.2,29.94,NE,36,3.1,5.8,16,0.00,,---,0.08,VWS V14.01,2013-01-19 02:01:00,
2013-01-18 19:02:00,41.7,-1.2,29.94,North,7,3.1,5.8,16,0.00,,---,0.08,VWS V14.01,2013-01-19 02:02:00,
2013-01-18 19:04:00,41.7,-1.2,29.94,North,0,3.6,5.8,16,0.00,,---,0.08,VWS V14.01,2013-01-19 02:04:00,
2013-01-18 19:06:00,41.7,-1.2,29.94,North,357,3.1,5.8,16,0.00,,---,0.08,VWS V14.01,2013-01-19 02:06:00,
2013-01-18 19:08:00,41.7,-1.2,29.94,North,1,2.7,5.8,16,0.00,,---,0.08,VWS V14.01,2013-01-19 02:08:00,
2013-01-18 19:10:00,41.9,-1.0,29.94,NW,321,3.1,8.1,16,0.00,,---,0.08,VWS V14.01,2013-01-19 02:10:00,
2013-01-18 19:11:00,42.1,-0.9,29.94,NW,321,3.1,8.1,16,0.00,,---,0.08,VWS V14.01,2013-01-19 02:11:00,
2013-01-18 19:13:00,42.1,-0.9,29.97,NNW,331,2.7,8.1,16,0.00,,---,0.08,VWS V14.01,2013-01-19 02:13:00,
2013-01-18 19:15:00,42.1,-0.9,29.97,North,0,2.2,8.1,16,0.00,,---,0.08,VWS V14.01,2013-01-19 02:15:00,
2013-01-18 19:16:00,42.1,-0.9,29.97,NNW,339,5.8,8.3,16,0.00,,---,0.08,VWS V14.01,2013-01-19 02:16:00,
2013-01-18 19:18:00,42.1,-0.9,29.97,WNW,295,6.3,8.3,16,0.00,,---,0.08,VWS V14.01,2013-01-19 02:18:00,
2013-01-18 19:21:00,41.9,-1.0,29.97,WNW,299,4.0,8.3,16,0.00,,---,0.08,VWS V14.01,2013-01-19 02:21:00,
2013-01-18 19:23:00,41.7,-1.2,29.97,WSW,252,4.9,8.3,16,0.00,,---,0.08,VWS V14.01,2013-01-19 02:23:00,
2013-01-18 19:26:00,41.2,-1.6,29.97,West,263,3.1,8.3,16,0.00,,---,0.08,VWS V14.01,2013-01-19 02:26:00,
2013-01-18 19:28:00,40.8,-1.9,29.94,NW,308,4.0,8.3,16,0.00,,---,0.08,VWS V14.01,2013-01-19 02:28:00,
2013-01-18 19:31:00,40.8,-1.9,29.94,SSW,210,5.8,5.8,16,0.00,,---,0.08,VWS V14.01,2013-01-19 02:31:00,
2013-01-18 19:33:00,41.0,-1.7,29.94,WNW,288,6.3,9.6,16,0.00,,---,0.08,VWS V14.01,2013-01-19 02:33:00,
2013-01-18 19:34:00,41.2,-1.6,29.94,WSW,251,3.1,9.6,16,0.00,,---,0.08,VWS V14.01,2013-01-19 02:34:00,
2013-01-18 19:36:00,41.2,-1.6,29.94,NNW,332,3.1,9.6,16,0.00,,---,0.08,VWS V14.01,2013-01-19 02:36:00,
2013-01-18 19:37:00,41.2,-1.6,29.94,North,6,3.6,9.6,16,0.00,,---,0.08,VWS V14.01,2013-01-19 02:37:00,
2013-01-18 19:38:00,41.2,-1.6,29.94,WNW,303,4.0,9.6,16,0.00,,---,0.08,VWS V14.01,2013-01-19 02:38:00,
2013-01-18 19:39:00,41.2,-1.6,29.94,NW,318,3.1,9.6,16,0.00,,---,0.08,VWS V14.01,2013-01-19 02:39:00,
2013-01-18 19:41:00,41.4,-1.5,29.94,WNW,299,3.1,9.6,16,0.00,,---,0.08,VWS V14.01,2013-01-19 02:41:00,
2013-01-18 19:42:00,41.4,-1.5,29.94,NNW,341,4.0,9.6,16,0.00,,---,0.08,VWS V14.01,2013-01-19 02:42:00,
2013-01-18 19:44:00,41.7,-1.2,29.97,North,0,3.1,9.6,16,0.00,,---,0.08,VWS V14.01,2013-01-19 02:44:00,
2013-01-18 19:46:00,41.7,-1.2,29.97,NW,308,5.4,7.2,16,0.00,,---,0.08,VWS V14.01,2013-01-19 02:46:00,
2013-01-18 19:47:00,41.7,-1.2,29.97,NW,307,5.4,7.2,16,0.00,,---,0.08,VWS V14.01,2013-01-19 02:47:00,
2013-01-18 19:49:00,41.7,-1.2,29.97,NNW,327,7.6,9.2,16,0.00,,---,0.08,VWS V14.01,2013-01-19 02:49:00,
2013-01-18 19:52:00,41.7,-1.2,29.97,NW,325,3.6,9.2,16,0.00,,---,0.08,VWS V14.01,2013-01-19 02:52:00,
2013-01-18 19:54:00,41.5,-1.3,29.97,WNW,299,2.7,9.2,16,0.00,,---,0.08,VWS V14.01,2013-01-19 02:54:00,
2013-01-18 19:55:00,41.5,-1.3,29.97,WNW,299,4.9,9.2,16,0.00,,---,0.08,VWS V14.01,2013-01-19 02:55:00,
2013-01-18 19:57:00,41.2,-1.6,29.97,WNW,291,3.6,9.2,16,0.00,,---,0.08,VWS V14.01,2013-01-19 02:57:00,
2013-01-18 19:58:00,41.2,-1.6,29.97,WNW,284,5.8,9.2,16,0.00,,---,0.08,VWS V14.01,2013-01-19 02:58:00,
2013-01-18 19:59:00,41.0,-1.7,29.97,West,279,3.1,9.2,16,0.00,,---,0.08,VWS V14.01,2013-01-19 02:59:00,
2013-01-18 20:00:00,41.0,-1.7,29.97,NW,318,5.4,9.2,16,0.00,,---,0.08,VWS V14.01,2013-01-19 03:00:00,
2013-01-18 20:02:00,41.0,-1.7,29.97,WNW,298,2.7,7.6,16,0.00,,---,0.08,VWS V14.01,2013-01-19 03:02:00,
2013-01-18 20:03:00,41.0,-1.7,29.97,NW,322,4.0,7.6,16,0.00,,---,0.08,VWS V14.01,2013-01-19 03:03:00,
2013-01-18 20:04:00,41.0,-1.7,29.97,WNW,282,5.8,7.6,16,0.00,,---,0.08,VWS V14.01,2013-01-19 03:04:00,
2013-01-18 20:05:00,41.0,-1.7,29.97,NW,315,4.0,7.6,16,0.00,,---,0.08,VWS V14.01,2013-01-19 03:05:00,
2013-01-18 20:07:00,41.2,-1.6,29.97,NW,317,4.0,8.7,16,0.00,,---,0.08,VWS V14.01,2013-01-19 03:07:00,
2013-01-18 20:08:00,41.2,-1.6,29.97,NW,310,4.0,8.7,16,0.00,,---,0.08,VWS V14.01,2013-01-19 03:08:00,
2013-01-18 20:10:00,41.2,-1.6,29.97,WSW,239,3.6,8.7,16,0.00,,---,0.08,VWS V14.01,2013-01-19 03:10:00,
2013-01-18 20:13:00,40.8,-1.9,29.97,WNW,286,5.8,8.7,16,0.00,,---,0.08,VWS V14.01,2013-01-19 03:13:00,
2013-01-18 20:15:00,40.6,-2.0,29.97,WNW,286,6.3,11.0,16,0.00,,---,0.08,VWS V14.01,2013-01-19 03:15:00,
2013-01-18 20:18:00,41.0,-1.7,29.97,WNW,288,8.1,12.3,16,0.00,,---,0.08,VWS V14.01,2013-01-19 03:18:00,
2013-01-18 20:20:00,41.0,-1.7,29.97,West,278,5.8,12.3,16,0.00,,---,0.08,VWS V14.01,2013-01-19 03:20:00,
2013-01-18 20:23:00,40.6,-2.0,29.97,West,271,7.6,12.3,16,0.00,,---,0.08,VWS V14.01,2013-01-19 03:23:00,
2013-01-18 20:25:00,40.6,-2.0,29.97,WNW,287,7.2,12.3,16,0.00,,---,0.08,VWS V14.01,2013-01-19 03:25:00,
2013-01-18 20:26:00,40.5,-2.2,29.97,West,264,6.3,12.3,16,0.00,,---,0.08,VWS V14.01,2013-01-19 03:26:00,
2013-01-18 20:28:00,40.5,-2.2,29.97,West,278,3.6,12.3,16,0.00,,---,0.08,VWS V14.01,2013-01-19 03:28:00,
2013-01-18 20:30:00,40.5,-2.2,29.97,WNW,284,5.8,10.5,16,0.00,,---,0.08,VWS V14.01,2013-01-19 03:30:00,
2013-01-18 20:32:00,40.6,-2.0,29.97,West,270,3.6,10.5,16,0.00,,---,0.08,VWS V14.01,2013-01-19 03:32:00,
2013-01-18 20:33:00,40.6,-2.0,29.97,West,272,3.1,10.5,16,0.00,,---,0.08,VWS V14.01,2013-01-19 03:33:00,
2013-01-18 20:35:00,40.5,-2.2,29.97,WNW,287,3.6,10.5,16,0.00,,---,0.08,VWS V14.01,2013-01-19 03:35:00,
2013-01-18 20:37:00,40.5,-2.2,29.97,NW,311,3.6,10.5,16,0.00,,---,0.08,VWS V14.01,2013-01-19 03:37:00,
2013-01-18 20:38:00,40.5,-2.2,29.97,West,271,3.6,10.5,16,0.00,,---,0.08,VWS V14.01,2013-01-19 03:38:00,
2013-01-18 20:40:00,40.3,-2.3,29.97,West,260,2.7,10.5,16,0.00,,---,0.08,VWS V14.01,2013-01-19 03:40:00,
2013-01-18 20:44:00,40.1,-2.5,29.97,WNW,283,2.7,10.5,16,0.00,,---,0.08,VWS V14.01,2013-01-19 03:44:00,
2013-01-18 20:45:00,39.9,-2.6,29.97,West,270,3.6,3.6,16,0.00,,---,0.08,VWS V14.01,2013-01-19 03:45:00,
2013-01-18 20:49:00,39.9,-2.6,29.97,NW,310,4.0,6.3,16,0.00,,---,0.08,VWS V14.01,2013-01-19 03:49:00,
2013-01-18 20:50:00,40.1,-2.5,29.97,SW,232,3.6,6.3,16,0.00,,---,0.08,VWS V14.01,2013-01-19 03:50:00,
2013-01-18 20:51:00,40.1,-2.5,29.97,SSW,211,5.8,6.3,16,0.00,,---,0.08,VWS V14.01,2013-01-19 03:51:00,
2013-01-18 20:54:00,39.9,-2.6,29.97,WNW,294,5.4,6.3,16,0.00,,---,0.08,VWS V14.01,2013-01-19 03:54:00,
2013-01-18 20:55:00,39.9,-2.6,29.97,West,277,3.1,6.3,16,0.00,,---,0.08,VWS V14.01,2013-01-19 03:55:00,
2013-01-18 20:56:00,39.9,-2.6,29.97,WNW,292,0.0,6.3,16,0.00,,---,0.08,VWS V14.01,2013-01-19 03:56:00,
2013-01-18 20:59:00,40.1,-2.5,29.94,West,279,5.4,6.3,16,0.00,,---,0.08,VWS V14.01,2013-01-19 03:59:00,
2013-01-18 21:00:00,40.3,-2.3,29.94,WNW,298,5.8,5.8,16,0.00,,---,0.08,VWS V14.01,2013-01-19 04:00:00,
2013-01-18 21:01:00,40.3,-2.3,29.94,WNW,303,4.0,5.8,16,0.00,,---,0.08,VWS V14.01,2013-01-19 04:01:00,
2013-01-18 21:05:00,40.3,-2.3,29.94,WSW,237,2.7,5.8,16,0.00,,---,0.08,VWS V14.01,2013-01-19 04:05:00,
2013-01-18 21:06:00,40.1,-2.5,29.94,North,7,4.0,5.8,16,0.00,,---,0.08,VWS V14.01,2013-01-19 04:06:00,
2013-01-18 21:10:00,40.1,-2.5,29.94,NNE,29,2.7,6.3,16,0.00,,---,0.08,VWS V14.01,2013-01-19 04:10:00,
2013-01-18 21:11:00,40.3,-2.3,29.94,NNE,29,0.0,6.3,16,0.00,,---,0.08,VWS V14.01,2013-01-19 04:11:00,
2013-01-18 21:12:00,40.3,-2.3,29.94,NE,37,0.0,6.3,16,0.00,,---,0.08,VWS V14.01,2013-01-19 04:12:00,
2013-01-18 21:15:00,40.3,-2.3,29.97,ENE,78,0.0,6.3,16,0.00,,---,0.08,VWS V14.01,2013-01-19 04:15:00,
2013-01-18 21:16:00,39.9,-2.6,29.97,WNW,288,2.7,2.7,16,0.00,,---,0.08,VWS V14.01,2013-01-19 04:16:00,
2013-01-18 21:17:00,39.7,-2.8,29.97,SSW,195,3.6,5.8,16,0.00,,---,0.08,VWS V14.01,2013-01-19 04:17:00,
2013-01-18 21:20:00,39.9,-2.6,29.97,North,353,3.1,5.8,16,0.00,,---,0.08,VWS V14.01,2013-01-19 04:20:00,
2013-01-18 21:21:00,39.9,-2.6,29.97,NNW,332,8.1,8.1,16,0.00,,---,0.08,VWS V14.01,2013-01-19 04:21:00,
2013-01-18 21:22:00,40.1,-2.5,29.97,WNW,295,3.1,8.1,16,0.00,,---,0.08,VWS V14.01,2013-01-19 04:22:00,
2013-01-18 21:25:00,40.1,-2.5,29.97,WNW,284,4.9,8.1,16,0.00,,---,0.08,VWS V14.01,2013-01-19 04:25:00,
2013-01-18 21:27:00,40.3,-2.3,29.97,West,273,6.3,8.1,16,0.00,,---,0.08,VWS V14.01,2013-01-19 04:27:00,
2013-01-18 21:30:00,40.3,-2.3,29.97,SW,229,3.6,4.0,16,0.00,,---,0.08,VWS V14.01,2013-01-19 04:30:00,
2013-01-18 21:31:00,40.3,-2.3,29.97,West,280,3.6,4.0,16,0.00,,---,0.08,VWS V14.01,2013-01-19 04:31:00,
2013-01-18 21:32:00,40.3,-2.3,29.97,West,278,4.9,4.9,16,0.00,,---,0.08,VWS V14.01,2013-01-19 04:32:00,
2013-01-18 21:33:00,40.1,-2.5,29.97,West,281,2.7,4.9,16,0.00,,---,0.08,VWS V14.01,2013-01-19 04:33:00,
2013-01-18 21:35:00,39.9,-2.6,29.97,West,268,2.7,5.4,16,0.00,,---,0.08,VWS V14.01,2013-01-19 04:35:00,
2013-01-18 21:36:00,39.7,-2.8,29.97,West,275,4.0,5.4,16,0.00,,---,0.08,VWS V14.01,2013-01-19 04:36:00,
2013-01-18 21:37:00,39.7,-2.8,29.97,SW,228,3.1,5.4,16,0.00,,---,0.08,VWS V14.01,2013-01-19 04:37:00,
2013-01-18 21:38:00,39.7,-2.8,29.97,West,281,3.1,5.4,16,0.00,,---,0.08,VWS V14.01,2013-01-19 04:38:00,
2013-01-18 21:41:00,39.7,-2.8,29.97,West,278,2.7,5.4,16,0.00,,---,0.08,VWS V14.01,2013-01-19 04:41:00,
2013-01-18 21:42:00,39.6,-2.9,29.97,SW,217,3.1,5.4,16,0.00,,---,0.08,VWS V14.01,2013-01-19 04:42:00,
2013-01-18 21:43:00,39.6,-2.9,29.97,SW,221,2.7,5.4,16,0.00,,---,0.08,VWS V14.01,2013-01-19 04:43:00,
2013-01-18 21:46:00,39.4,-3.1,29.97,WSW,257,3.1,3.6,16,0.00,,---,0.08,VWS V14.01,2013-01-19 04:46:00,
2013-01-18 21:47:00,39.2,-3.2,29.97,WSW,246,2.7,4.0,16,0.00,,---,0.08,VWS V14.01,2013-01-19 04:47:00,
2013-01-18 21:48:00,39.2,-3.2,29.97,West,263,3.1,4.0,16,0.00,,---,0.08,VWS V14.01,2013-01-19 04:48:00,
2013-01-18 21:52:00,39.0,-3.4,29.97,West,259,2.2,4.0,16,0.00,,---,0.08,VWS V14.01,2013-01-19 04:52:00,
2013-01-18 21:53:00,38.8,-3.5,29.97,West,259,2.7,4.0,16,0.00,,---,0.08,VWS V14.01,2013-01-19 04:53:00,
2013-01-18 21:57:00,38.7,-3.7,29.97,West,271,2.2,4.0,16,0.00,,---,0.08,VWS V14.01,2013-01-19 04:57:00,
2013-01-18 21:58:00,38.7,-3.7,29.97,West,269,3.6,4.0,16,0.00,,---,0.08,VWS V14.01,2013-01-19 04:58:00,
2013-01-18 22:00:00,38.5,-3.8,29.97,WSW,252,3.1,4.0,16,0.00,,---,0.08,VWS V14.01,2013-01-19 05:00:00,
2013-01-18 22:01:00,38.5,-3.8,29.97,West,261,3.6,3.6,16,0.00,,---,0.08,VWS V14.01,2013-01-19 05:01:00,
2013-01-18 22:03:00,38.5,-3.8,29.97,SW,222,2.7,3.6,16,0.00,,---,0.08,VWS V14.01,2013-01-19 05:03:00,
2013-01-18 22:05:00,38.5,-3.8,29.97,SW,220,2.7,3.6,16,0.00,,---,0.08,VWS V14.01,2013-01-19 05:05:00,
2013-01-18 22:06:00,38.5,-3.8,29.97,SW,224,2.7,3.6,16,0.00,,---,0.08,VWS V14.01,2013-01-19 05:06:00,
2013-01-18 22:08:00,38.3,-4.0,29.97,West,273,3.1,4.0,16,0.00,,---,0.08,VWS V14.01,2013-01-19 05:08:00,
2013-01-18 22:10:00,38.1,-4.1,29.97,West,271,3.1,4.0,16,0.00,,---,0.08,VWS V14.01,2013-01-19 05:10:00,
2013-01-18 22:11:00,38.1,-4.1,29.97,West,273,4.0,4.0,16,0.00,,---,0.08,VWS V14.01,2013-01-19 05:11:00,
2013-01-18 22:13:00,38.1,-4.1,29.97,WNW,293,2.7,5.4,16,0.00,,---,0.08,VWS V14.01,2013-01-19 05:13:00,
2013-01-18 22:15:00,38.1,-4.1,29.97,West,267,3.1,5.8,16,0.00,,---,0.08,VWS V14.01,2013-01-19 05:15:00,
2013-01-18 22:16:00,38.1,-4.1,29.97,WSW,245,2.7,5.8,16,0.00,,---,0.08,VWS V14.01,2013-01-19 05:16:00,
2013-01-18 22:19:00,38.1,-4.1,29.97,West,261,3.6,5.8,16,0.00,,---,0.08,VWS V14.01,2013-01-19 05:19:00,
2013-01-18 22:20:00,38.1,-4.1,29.97,West,271,3.1,5.8,16,0.00,,---,0.08,VWS V14.01,2013-01-19 05:20:00,
2013-01-18 22:21:00,38.1,-4.1,29.97,West,271,2.7,5.8,16,0.00,,---,0.08,VWS V14.01,2013-01-19 05:21:00,
2013-01-18 22:22:00,38.1,-4.1,29.97,West,271,3.1,5.8,16,0.00,,---,0.08,VWS V14.01,2013-01-19 05:22:00,
2013-01-18 22:24:00,38.1,-4.1,29.97,SW,233,2.2,5.8,16,0.00,,---,0.08,VWS V14.01,2013-01-19 05:24:00,
2013-01-18 22:25:00,38.1,-4.1,29.97,SW,232,3.1,5.8,16,0.00,,---,0.08,VWS V14.01,2013-01-19 05:25:00,
2013-01-18 22:27:00,38.1,-4.1,29.97,SSW,195,4.0,5.8,16,0.00,,---,0.08,VWS V14.01,2013-01-19 05:27:00,
2013-01-18 22:29:00,38.5,-3.8,29.97,SW,216,2.2,5.8,16,0.00,,---,0.08,VWS V14.01,2013-01-19 05:29:00,
2013-01-18 22:31:00,38.5,-3.8,29.97,SW,216,2.7,2.7,16,0.00,,---,0.08,VWS V14.01,2013-01-19 05:31:00,
2013-01-18 22:32:00,38.5,-3.8,29.97,SW,216,2.7,2.7,16,0.00,,---,0.08,VWS V14.01,2013-01-19 05:32:00,
2013-01-18 22:35:00,38.8,-3.5,29.97,West,272,3.1,7.6,16,0.00,,---,0.08,VWS V14.01,2013-01-19 05:35:00,
2013-01-18 22:37:00,39.0,-3.4,29.97,West,273,4.0,7.6,16,0.00,,---,0.08,VWS V14.01,2013-01-19 05:37:00,
2013-01-18 22:40:00,39.4,-3.1,29.97,SW,230,3.1,7.6,16,0.00,,---,0.08,VWS V14.01,2013-01-19 05:40:00,
2013-01-18 22:42:00,39.4,-3.1,29.97,South,177,3.6,7.6,16,0.00,,---,0.08,VWS V14.01,2013-01-19 05:42:00,
2013-01-18 22:45:00,39.6,-2.9,29.97,SW,224,4.0,5.8,16,0.00,,---,0.08,VWS V14.01,2013-01-19 05:45:00,
2013-01-18 22:47:00,39.7,-2.8,29.97,SW,218,3.1,5.8,16,0.00,,---,0.08,VWS V14.01,2013-01-19 05:47:00,
2013-01-18 22:51:00,39.9,-2.6,29.97,WSW,255,4.9,11.0,16,0.00,,---,0.08,VWS V14.01,2013-01-19 05:51:00,
2013-01-18 22:52:00,40.3,-2.3,29.97,WSW,241,3.1,11.0,16,0.00,,---,0.08,VWS V14.01,2013-01-19 05:52:00,
2013-01-18 22:56:00,40.3,-2.3,29.97,SSW,211,4.0,11.0,16,0.00,,---,0.08,VWS V14.01,2013-01-19 05:56:00,
2013-01-18 22:57:00,40.3,-2.3,29.97,SSW,211,3.1,11.0,16,0.00,,---,0.08,VWS V14.01,2013-01-19 05:57:00,
2013-01-18 23:01:00,40.3,-2.3,29.97,SW,232,2.2,2.7,16,0.00,,---,0.08,VWS V14.01,2013-01-19 06:01:00,
2013-01-18 23:02:00,40.1,-2.5,29.97,SSW,205,2.2,3.6,16,0.00,,---,0.08,VWS V14.01,2013-01-19 06:02:00,
2013-01-18 23:06:00,39.9,-2.6,29.97,South,186,5.4,8.1,16,0.00,,---,0.08,VWS V14.01,2013-01-19 06:06:00,
2013-01-18 23:07:00,39.9,-2.6,29.97,West,264,4.0,8.1,16,0.00,,---,0.08,VWS V14.01,2013-01-19 06:07:00,
2013-01-18 23:11:00,40.1,-2.5,29.97,SSW,213,5.8,8.1,16,0.00,,---,0.08,VWS V14.01,2013-01-19 06:11:00,
2013-01-18 23:12:00,40.1,-2.5,30.00,SSW,212,3.6,8.1,16,0.00,,---,0.08,VWS V14.01,2013-01-19 06:12:00,
2013-01-18 23:13:00,40.1,-2.5,30.00,WSW,250,2.7,8.1,16,0.00,,---,0.08,VWS V14.01,2013-01-19 06:13:00,
2013-01-18 23:16:00,40.3,-2.3,30.00,South,182,0.0,2.7,16,0.00,,---,0.08,VWS V14.01,2013-01-19 06:16:00,
2013-01-18 23:17:00,40.3,-2.3,30.00,South,182,2.2,3.6,16,0.00,,---,0.08,VWS V14.01,2013-01-19 06:17:00,
2013-01-18 23:18:00,40.1,-2.5,30.00,South,182,2.7,3.6,16,0.00,,---,0.08,VWS V14.01,2013-01-19 06:18:00,
2013-01-18 23:21:00,39.6,-2.9,30.00,SW,216,3.1,4.0,16,0.00,,---,0.08,VWS V14.01,2013-01-19 06:21:00,
2013-01-18 23:22:00,39.6,-2.9,30.00,SW,234,4.0,4.9,16,0.00,,---,0.08,VWS V14.01,2013-01-19 06:22:00,
2013-01-18 23:23:00,39.4,-3.1,30.00,SW,234,2.2,4.9,16,0.00,,---,0.08,VWS V14.01,2013-01-19 06:23:00,
2013-01-18 23:27:00,39.4,-3.1,30.00,South,188,3.1,7.6,16,0.00,,---,0.08,VWS V14.01,2013-01-19 06:27:00,
2013-01-18 23:28:00,39.7,-2.8,30.00,South,179,2.7,7.6,16,0.00,,---,0.08,VWS V14.01,2013-01-19 06:28:00,
2013-01-18 23:32:00,39.9,-2.6,30.00,South,187,2.2,3.1,16,0.00,,---,0.08,VWS V14.01,2013-01-19 06:32:00,
2013-01-18 23:33:00,39.9,-2.6,30.00,SSW,202,3.1,3.1,16,0.00,,---,0.08,VWS V14.01,2013-01-19 06:33:00,
2013-01-18 23:34:00,39.7,-2.8,30.00,SSW,203,2.2,3.1,16,0.00,,---,0.08,VWS V14.01,2013-01-19 06:34:00,
2013-01-18 23:37:00,39.4,-3.1,30.00,SSW,197,0.0,4.0,16,0.00,,---,0.08,VWS V14.01,2013-01-19 06:37:00,
2013-01-18 23:38:00,39.4,-3.1,30.00,SW,234,0.0,4.0,16,0.00,,---,0.08,VWS V14.01,2013-01-19 06:38:00,
2013-01-18 23:39:00,39.4,-3.1,30.00,SW,235,0.0,4.0,16,0.00,,---,0.08,VWS V14.01,2013-01-19 06:39:00,
2013-01-18 23:42:00,39.0,-3.4,30.00,WSW,239,2.2,4.0,16,0.00,,---,0.08,VWS V14.01,2013-01-19 06:42:00,
2013-01-18 23:43:00,38.8,-3.5,30.00,SSW,195,4.0,4.0,16,0.00,,---,0.08,VWS V14.01,2013-01-19 06:43:00,
2013-01-18 23:44:00,38.8,-3.5,30.00,SSW,194,4.0,4.5,16,0.00,,---,0.08,VWS V14.01,2013-01-19 06:44:00,
2013-01-18 23:47:00,38.5,-3.8,30.00,WSW,246,3.6,3.6,16,0.00,,---,0.08,VWS V14.01,2013-01-19 06:47:00,
2013-01-18 23:48:00,38.5,-3.8,30.00,WSW,246,2.2,3.6,16,0.00,,---,0.08,VWS V14.01,2013-01-19 06:48:00,
2013-01-18 23:49:00,38.3,-4.0,30.00,WSW,246,0.0,3.6,16,0.00,,---,0.08,VWS V14.01,2013-01-19 06:49:00,
2013-01-18 23:52:00,37.9,-4.2,30.00,SSW,206,3.6,4.0,16,0.00,,---,0.08,VWS V14.01,2013-01-19 06:52:00,
2013-01-18 23:53:00,38.1,-4.1,30.00,SW,230,3.1,4.0,16,0.00,,---,0.08,VWS V14.01,2013-01-19 06:53:00,
2013-01-18 23:54:00,38.1,-4.1,30.00,SW,231,2.7,4.0,16,0.00,,---,0.08,VWS V14.01,2013-01-19 06:54:00,
2013-01-18 23:58:00,38.1,-4.1,30.00,SSW,198,4.0,4.9,16,0.00,,---,0.08,VWS V14.01,2013-01-19 06:58:00,
2013-01-18 23:59:00,38.3,-4.0,30.00,SSW,199,2.7,4.9,16,0.00,,---,0.08,VWS V14.01,2013-01-19 06:59:00,